GFSSE_500_rhum_063.txt.gz
RH
13 13 13 9 10 12 11 13 9 6 5 5 6 9 8 6 7 8 8 8 7 7 7 6 6 6 6 7 7 7 8 9 10 10 11 11 12 12 13 13 13 11 12
23 25 25 22 13 8 6 6 5 4 3 3 3 3 3 3 3 3 4 6 7 9 9 8 8 7 7 7 7 8 9 11 12 12 12 12 13 13 14 13 13 13 12
29 28 25 25 21 17 14 12 10 9 9 8 7 6 4 3 3 3 3 4 4 5 6 8 8 8 8 8 8 8 9 10 11 12 13 14 14 14 13 13 12 10 10
24 24 21 19 19 19 17 17 16 16 15 14 13 13 11 9 8 7 5 4 4 4 4 5 7 8 8 8 9 9 10 10 11 12 13 13 13 13 12 12 12 16 17
19 18 18 16 16 15 16 15 14 14 14 14 14 14 14 14 14 13 11 9 9 8 7 6 6 7 8 8 9 9 9 10 10 12 12 12 13 14 15 17 18 18 17
16 15 14 13 13 12 12 12 12 12 12 11 12 11 12 11 11 12 13 14 14 14 12 10 8 8 8 8 9 10 11 11 13 15 16 16 18 18 19 20 20 20 24
13 13 12 11 10 10 10 9 9 8 9 9 9 10 10 10 10 11 11 12 13 14 15 14 13 11 10 9 9 10 10 12 14 16 17 18 19 20 22 25 26 29 31
11 12 12 12 10 10 9 8 8 7 8 9 9 9 9 10 10 10 11 11 13 14 15 15 14 14 13 13 13 14 15 15 18 21 24 26 27 28 32 36 37 37 39
13 13 13 14 12 10 8 8 7 6 6 7 8 9 10 10 10 10 11 12 13 15 17 18 17 16 16 16 16 17 17 18 23 26 30 34 36 38 38 41 44 45 48
16 14 14 13 13 12 10 9 8 7 8 8 9 9 9 11 11 11 10 11 12 13 14 16 17 18 18 20 20 21 22 22 25 30 32 38 38 40 44 50 52 53 55
12 13 13 13 13 11 10 10 9 10 11 12 10 10 12 12 12 11 11 11 12 12 13 14 16 17 18 20 22 23 24 24 24 26 29 36 39 39 45 51 54 55 58
10 11 11 10 10 10 10 11 12 14 16 23 15 14 16 14 10 10 10 11 11 11 13 15 17 19 20 21 21 22 23 23 23 24 24 27 31 30 35 45 54 59 68
12 12 11 10 10 10 10 11 12 20 35 23 14 10 10 13 11 10 9 10 12 12 13 15 16 19 20 21 22 22 24 24 24 25 26 27 27 27 27 31 39 45 56
12 10 10 8 8 7 7 10 12 21 22 19 14 10 14 13 10 9 9 9 8 9 13 18 19 20 21 22 22 24 26 26 27 27 26 26 24 24 28 37 44 43 48
18 12 10 13 11 10 10 11 15 14 12 10 8 7 12 10 9 7 7 7 7 9 15 17 16 16 17 20 23 26 28 28 29 30 30 29 25 23 23 38 49 36 47
32 14 13 11 10 11 11 11 14 20 18 8 7 7 9 11 9 7 7 9 7 8 10 9 10 11 16 24 29 32 33 33 32 32 34 34 33 34 36 36 34 32 35
21 19 10 13 13 11 11 21 17 15 21 13 9 8 9 11 8 7 9 11 11 8 7 10 15 16 18 23 24 26 30 34 36 39 38 41 44 46 48 49 52 56 59
12 10 9 13 23 10 12 23 35 40 32 18 24 19 10 13 18 16 15 14 11 8 9 18 20 17 18 21 21 26 29 27 29 36 45 51 51 52 52 50 52 53 66
11 10 10 9 14 12 10 23 29 30 30 42 35 29 31 27 34 34 30 23 11 10 16 26 26 17 14 19 21 24 28 25 27 29 35 41 44 49 56 58 59 62 65
10 10 9 8 9 9 11 19 34 26 34 43 37 35 56 69 70 69 51 34 29 23 31 41 42 37 26 28 26 30 33 30 25 28 36 40 40 41 42 48 54 61 65
8 9 8 8 10 9 8 8 15 15 19 36 40 54 59 62 80 80 80 64 58 56 57 57 60 58 49 55 47 46 50 48 41 38 47 42 42 42 46 51 56 62 63
8 8 10 8 9 10 10 10 8 8 12 22 32 45 54 60 74 77 88 88 82 76 76 80 88 85 76 76 71 76 80 85 94 76 64 48 45 43 34 47 50 54 60
9 8 9 10 8 9 11 10 8 8 8 9 10 13 23 34 54 70 70 85 82 89 86 84 88 94 78 77 73 68 77 90 94 98 87 59 55 55 37 43 50 50 49
9 8 8 11 10 8 9 10 9 8 9 10 10 12 12 15 18 33 51 51 64 74 83 89 80 74 75 80 80 74 85 90 84 98 98 93 87 74 61 42 49 48 37
8 8 8 10 10 10 10 11 10 9 9 11 12 13 15 16 16 17 19 37 45 56 79 72 65 60 67 69 68 75 72 77 81 81 100 99 96 92 82 57 40 49 43
8 8 8 9 10 11 12 14 15 16 14 12 12 14 15 17 19 19 30 39 40 42 53 36 50 63 72 79 76 69 73 81 98 96 94 94 96 94 89 69 54 63 79

GFSSE_500_rhum_069.txt.gz
RH
8 8 8 6 4 6 11 17 25 24 21 17 10 4 3 3 4 4 4 4 5 6 6 6 6 6 6 6 7 7 7 8 8 9 9 10 10 11 12 12 13 13 13
13 14 14 12 10 8 6 4 4 4 4 3 2 3 3 2 2 2 2 2 2 2 3 3 4 5 6 7 7 7 8 8 8 9 9 10 10 10 11 12 13 13 13
18 19 21 21 20 18 16 14 10 8 6 5 5 6 6 6 6 6 6 5 4 4 3 3 3 3 3 4 5 6 7 8 8 8 8 9 10 10 10 11 11 12 12
25 26 25 24 22 21 20 18 17 17 16 14 13 12 12 12 12 12 11 11 11 11 10 8 7 8 7 6 5 5 6 6 7 7 8 8 9 9 10 12 13 15 16
29 27 24 21 18 18 16 16 16 16 15 14 14 14 13 13 12 12 12 12 12 12 13 12 12 12 12 10 8 7 7 6 7 8 8 8 9 11 12 12 13 15 16
29 26 21 18 16 15 16 15 14 12 12 12 12 11 11 11 10 10 9 10 10 10 11 11 12 12 13 13 12 11 10 10 10 10 11 10 12 13 14 15 15 18 21
25 22 19 17 15 13 12 11 10 9 8 7 7 6 6 5 5 5 5 6 5 6 6 7 9 11 13 13 13 13 13 14 15 15 15 15 17 18 18 19 22 24 27
20 18 17 17 14 11 9 7 7 7 7 6 6 5 4 4 4 4 4 4 4 5 5 6 6 9 12 15 16 16 16 16 17 17 20 22 22 22 22 23 26 29 33
17 16 16 17 13 10 8 7 6 6 6 4 4 3 3 3 4 4 4 4 5 5 5 5 6 7 8 11 13 14 13 14 16 17 20 20 20 21 23 24 28 32 36
14 14 15 15 13 11 9 8 7 5 4 4 4 4 4 4 4 4 5 6 5 6 7 6 5 5 6 7 8 9 10 12 13 14 15 15 18 22 23 24 25 27 31
13 13 13 13 13 12 10 9 7 5 4 5 5 5 5 4 6 10 9 7 8 7 5 4 5 5 6 6 8 9 11 11 11 12 14 17 19 22 22 23 23 24 24
13 11 11 10 10 10 10 9 7 6 5 5 5 5 5 7 14 15 12 8 5 6 6 6 5 5 6 7 7 8 10 10 12 14 16 17 17 20 21 21 20 22 22
16 15 12 11 10 9 8 7 6 7 6 6 6 6 7 10 16 17 14 9 6 8 6 6 6 5 5 6 8 9 10 12 13 14 15 17 16 20 20 20 22 22 23
14 14 13 10 8 7 7 9 10 8 8 7 6 6 8 9 10 10 8 5 7 7 6 5 5 5 6 8 9 8 9 10 12 13 16 17 16 17 17 21 24 27 26
14 11 10 9 7 9 12 11 10 10 7 6 13 10 7 9 11 14 7 6 7 7 7 6 6 6 6 8 7 8 10 11 12 12 16 17 17 15 17 22 25 29 29
14 15 12 9 9 11 11 10 10 7 7 9 9 14 12 10 11 15 12 6 8 9 9 7 7 9 7 8 7 12 11 12 12 13 13 14 15 15 16 17 22 26 30
13 13 13 11 13 14 16 16 15 10 10 10 11 19 29 18 33 30 18 14 8 9 10 8 8 10 11 7 8 16 13 12 15 17 17 21 22 20 18 19 23 26 27
12 10 13 15 20 21 24 27 27 21 14 12 12 11 11 15 25 43 47 26 23 9 11 16 14 14 13 8 7 20 20 13 15 20 22 26 32 39 47 35 30 31 27
12 9 10 12 13 13 17 20 20 14 11 10 17 25 16 16 20 35 35 40 39 30 19 20 24 26 25 13 9 20 32 30 27 31 34 38 51 64 76 78 52 41 32
12 10 9 10 11 11 11 10 10 12 11 13 16 12 10 10 13 24 46 56 51 44 38 34 38 44 37 34 26 25 38 44 49 51 58 53 62 64 65 78 72 72 53
13 11 12 12 13 12 11 12 11 12 29 28 26 19 18 15 12 14 26 42 41 52 61 64 74 82 84 71 58 52 58 65 74 75 68 66 63 64 66 65 61 73 80
14 12 12 13 12 12 11 10 11 11 12 13 14 13 12 11 12 11 12 21 27 38 53 71 86 82 90 85 83 78 74 78 92 95 83 69 75 77 67 63 59 58 65
15 13 12 12 12 12 11 10 10 9 9 10 12 12 11 10 10 11 10 10 12 22 40 56 77 88 89 85 94 93 91 92 99 97 88 80 74 79 74 63 59 58 64
14 13 12 12 12 12 12 11 10 10 9 10 12 13 12 11 13 29 38 19 20 22 24 34 39 58 65 71 84 90 92 91 88 89 91 67 70 72 78 70 64 59 65
11 11 10 10 10 10 10 11 10 9 9 9 10 13 14 15 15 17 37 46 40 36 42 50 60 58 63 59 57 63 93 91 82 79 67 72 72 86 79 79 78 81 76
11 11 11 11 10 10 9 9 8 8 9 9 10 12 13 15 18 18 19 29 22 27 22 33 50 65 76 73 73 79 84 86 86 84 88 84 88 95 95 95 95 88 88

GFSSE_500_rhum_072.txt.gz
RH
10 6 5 5 4 4 7 16 19 21 22 20 17 10 4 3 2 2 2 2 2 2 2 3 4 5 6 6 6 6 7 7 7 7 7 8 8 9 9 10 10 11 11
9 9 9 10 9 6 4 4 4 3 4 4 3 3 3 3 3 4 3 3 3 3 3 2 2 2 3 3 4 4 4 5 5 6 6 7 8 9 9 9 10 10 10
12 13 14 14 15 15 14 12 11 9 7 6 6 6 6 7 8 8 8 8 9 9 8 8 7 6 6 6 6 5 5 5 5 6 7 7 7 8 8 9 9 10 11
15 16 18 20 21 21 20 18 17 16 15 15 15 15 14 13 13 13 13 12 12 12 12 12 12 11 10 11 11 9 8 6 6 6 7 8 8 9 9 11 11 11 12
22 23 24 24 22 21 20 18 17 16 16 15 15 14 13 13 13 12 12 12 12 11 11 11 12 12 12 12 13 12 11 11 10 9 9 10 11 10 12 13 14 14 14
30 30 28 24 21 19 18 17 15 14 14 13 12 12 11 10 8 7 5 4 4 5 5 6 6 7 9 10 10 12 13 12 12 13 14 15 15 15 17 18 18 20 21
33 31 27 22 19 17 15 14 14 12 11 10 8 6 5 4 4 4 3 3 2 3 3 4 4 4 4 5 8 10 12 14 16 17 17 16 17 19 21 20 20 22 25
34 29 25 21 18 16 14 12 10 9 7 6 6 5 4 3 2 2 2 2 3 3 3 3 4 4 4 5 7 10 14 14 13 13 15 16 17 17 19 19 20 22 24
30 26 22 18 15 14 12 10 8 7 7 6 5 4 3 2 2 3 3 3 3 4 4 4 5 6 5 5 6 7 9 9 10 10 10 11 12 14 15 18 21 22 23
26 22 18 15 14 13 10 8 7 6 6 5 4 3 3 3 3 3 3 5 8 7 6 5 4 4 4 4 4 5 6 6 7 9 9 10 11 11 12 16 18 19 20
20 18 15 14 13 11 8 7 8 6 5 4 3 3 3 3 3 4 5 12 12 10 7 5 4 5 5 4 4 4 5 6 6 8 8 8 10 11 14 15 17 19 18
16 16 13 12 10 8 8 8 7 6 4 3 3 4 4 4 4 4 7 12 14 11 7 5 6 5 5 4 4 5 5 6 7 8 7 7 9 12 13 15 17 16 17
17 13 14 11 10 9 9 8 6 5 4 4 4 4 4 4 4 4 6 8 9 6 5 5 5 5 5 4 4 5 7 8 6 8 8 9 10 12 12 14 14 13 16
15 13 11 12 12 12 10 8 5 5 6 7 7 6 4 9 9 6 8 12 11 6 5 5 5 5 6 5 5 6 8 7 7 10 10 12 11 11 10 11 13 15 18
16 15 14 13 12 11 9 7 6 7 9 7 7 5 6 7 10 11 10 10 14 10 6 6 7 8 6 5 6 6 7 7 9 10 13 12 11 11 10 12 14 15 18
19 17 15 13 12 9 9 7 8 9 9 10 8 8 8 7 15 26 19 30 24 18 13 8 8 8 7 7 8 9 7 9 13 10 15 15 14 16 19 20 20 19 20
23 27 20 16 13 14 12 11 31 28 13 15 14 10 10 9 9 11 10 18 39 45 24 21 12 8 13 10 10 11 8 10 18 14 13 18 19 23 27 33 52 53 38
21 17 16 14 13 13 12 12 20 16 19 24 26 21 12 10 14 20 16 14 19 31 36 40 32 25 15 18 20 18 11 8 17 25 17 18 23 27 34 43 64 61 61
20 25 30 19 12 12 14 14 16 21 20 16 16 13 10 10 10 13 9 8 10 16 41 46 47 44 35 29 31 32 32 21 17 25 38 38 42 47 48 61 63 59 60
21 21 18 29 34 28 22 14 10 10 14 18 20 16 24 19 18 17 15 16 11 10 18 36 46 50 53 46 49 62 64 48 38 36 45 52 54 61 68 65 58 58 61
29 22 20 17 12 19 17 15 14 12 17 16 19 18 17 21 16 18 15 10 9 9 11 24 26 32 48 62 70 80 86 86 80 74 74 74 83 78 68 75 72 66 62
26 24 23 19 13 11 10 11 13 11 10 10 21 18 11 11 22 22 23 26 14 13 10 15 15 32 45 56 60 84 83 87 92 96 92 92 88 91 90 88 78 75 71
28 26 25 20 14 12 12 11 11 12 10 9 10 10 12 15 18 24 27 37 38 38 27 30 46 59 61 64 66 70 78 87 95 99 96 97 97 97 100 93 81 68 73
28 28 26 21 16 12 12 12 10 10 10 11 11 11 11 10 9 14 32 31 33 37 27 46 50 58 62 69 84 86 77 71 68 75 82 88 97 92 94 100 90 85 82
21 21 20 18 16 14 13 12 12 10 10 10 11 11 11 11 11 12 13 15 15 33 32 32 39 39 55 71 76 85 88 94 95 90 86 90 95 98 93 100 100 96 96
24 14 12 13 13 12 11 11 11 11 10 9 9 9 9 10 10 13 16 18 18 21 27 28 32 39 31 52 55 63 80 97 96 95 96 97 98 98 97 94 94 96 87

GFSSE_500_rhum_075.txt.gz
RH
12 21 20 12 7 6 8 12 20 23 22 20 18 16 7 3 2 2 2 2 2 2 2 3 3 2 3 3 3 3 4 4 5 5 6 7 7 8 8 8 9 9 9
11 11 6 4 5 5 4 4 4 4 4 5 4 3 3 3 4 6 6 7 7 8 9 8 8 7 6 5 5 6 5 4 5 5 6 6 6 7 8 8 8 9 9
8 8 8 8 10 10 9 9 8 9 7 7 7 8 9 10 11 11 12 12 12 12 12 12 12 12 11 10 10 11 10 9 7 6 7 7 7 8 8 9 10 11 10
12 12 12 13 15 16 17 18 17 16 16 15 15 15 15 15 14 14 13 13 13 13 13 12 12 12 12 11 12 12 12 12 11 11 10 9 9 10 10 12 14 14 15
14 15 15 17 19 21 21 19 19 18 17 16 15 15 14 13 13 12 11 9 7 6 4 4 4 4 4 5 7 8 10 12 12 12 12 12 12 15 15 15 16 18 19
21 20 21 22 22 22 21 18 17 16 15 14 14 13 12 10 8 5 4 3 3 2 2 2 2 2 2 3 4 5 8 11 12 13 14 16 17 17 16 17 18 18 17
25 27 29 27 25 23 20 18 16 15 14 12 10 8 6 5 4 3 2 2 2 2 2 2 3 3 3 3 4 6 8 10 12 14 16 15 15 16 16 14 14 13 15
32 33 32 28 24 21 18 16 15 14 11 9 7 6 5 4 2 2 2 2 2 2 3 4 4 4 5 5 5 5 6 7 10 12 12 11 9 9 11 11 11 12 12
41 37 33 27 23 20 18 16 14 11 9 8 6 6 4 2 2 2 2 3 3 4 7 7 6 5 4 4 4 4 4 6 6 6 7 7 7 7 8 8 8 9 10
48 38 30 25 22 19 17 15 12 9 8 7 6 5 3 2 2 2 3 3 4 8 9 9 7 5 4 5 5 4 4 5 5 6 6 6 7 7 7 7 9 10 12
45 38 28 24 20 18 15 13 10 7 6 6 5 4 2 3 3 3 3 3 4 6 8 9 6 4 4 5 4 4 4 4 5 5 6 6 6 6 7 8 9 10 11
39 31 25 22 19 16 13 10 7 7 6 5 4 3 4 4 3 3 4 4 5 7 8 6 4 4 4 4 4 4 4 4 6 7 7 6 7 8 8 9 9 9 9
33 22 20 18 16 13 11 9 8 7 6 5 4 4 5 5 4 6 8 5 7 11 11 8 5 4 4 4 5 5 4 5 7 8 6 7 8 9 9 10 8 9 10
26 23 18 16 15 14 12 10 8 9 7 5 5 6 5 5 4 7 7 9 10 10 11 10 8 5 5 7 7 5 5 6 8 6 7 9 9 10 11 10 9 12 12
46 31 21 16 13 13 14 12 11 9 7 5 6 7 7 7 7 7 10 20 22 22 28 17 13 11 8 7 8 6 6 8 8 7 10 10 10 12 13 13 14 17 19
31 30 19 18 13 12 11 11 9 9 8 9 10 9 10 11 9 8 9 9 11 10 16 39 37 23 19 13 7 10 9 9 11 7 15 14 12 15 17 17 22 26 40
30 27 30 24 14 13 12 11 12 13 12 19 21 13 18 21 20 14 9 9 16 16 13 16 27 35 38 28 22 14 16 17 15 10 11 21 16 13 18 20 23 30 43
26 31 31 31 27 20 16 13 13 13 22 22 17 18 19 19 14 9 8 8 12 12 9 8 11 25 39 38 39 34 27 26 26 24 12 13 28 27 22 25 31 40 56
24 24 28 26 25 19 14 12 11 13 28 18 28 17 10 12 17 12 15 13 14 14 14 14 12 10 16 34 46 50 47 39 39 39 35 32 28 40 43 47 49 54 60
28 23 25 31 32 33 32 21 16 15 13 15 18 23 16 27 24 20 22 19 15 16 16 11 9 9 10 18 27 33 35 55 61 69 79 78 62 54 56 60 66 73 68
29 26 24 21 22 25 29 40 39 33 27 19 13 19 35 21 21 24 24 26 24 23 27 28 23 16 14 15 14 20 31 39 59 75 88 88 98 97 94 89 91 90 85
31 27 26 26 25 22 20 17 20 22 25 23 21 23 22 14 21 19 22 19 22 25 34 32 40 41 46 63 70 71 61 63 73 74 79 92 95 90 100 98 97 96 95
35 33 33 32 30 25 20 19 14 14 13 13 10 10 17 27 30 35 20 20 22 26 30 36 41 48 67 76 75 84 78 79 85 96 93 85 86 82 86 92 97 98 97
48 42 38 35 30 25 22 20 17 14 12 12 11 10 9 9 11 14 20 21 20 15 15 27 35 51 50 59 63 74 74 75 73 78 100 98 97 96 92 78 66 79 99
62 64 52 37 30 26 23 22 18 16 13 11 11 12 12 12 11 10 9 8 8 9 12 14 19 21 26 34 37 43 57 77 84 89 98 100 98 97 98 98 96 96 96
56 41 52 39 29 26 24 21 18 15 13 11 10 10 12 12 10 9 8 9 9 10 13 15 16 17 17 20 23 23 33 54 67 77 84 96 100 97 97 98 98 97 95

GFSSE_500_rhum_078.txt.gz
RH
22 20 22 23 18 14 13 14 16 19 20 17 16 16 13 4 2 3 4 4 5 6 7 8 8 8 7 6 6 5 6 6 5 5 6 6 6 6 6 6 7 7 8
16 13 21 19 10 5 4 4 7 11 8 5 7 4 3 4 4 7 9 10 11 12 12 12 12 12 12 12 11 10 11 11 11 9 7 8 8 6 6 7 8 9 11
9 11 14 8 5 7 7 6 6 6 7 8 7 8 11 13 14 14 14 14 13 13 13 13 13 13 12 12 11 11 11 11 11 11 11 11 10 9 9 10 10 14 14
8 10 8 7 10 13 15 16 17 16 16 16 16 16 15 15 15 14 14 13 12 10 8 5 4 3 3 4 4 5 5 7 8 11 11 12 12 12 12 14 16 15 15
9 11 11 12 14 17 19 20 21 19 18 17 16 16 15 14 13 12 10 6 4 3 2 2 2 2 2 2 2 3 4 5 8 10 12 12 14 15 17 17 15 15 14
13 14 14 15 19 22 23 21 20 18 17 16 15 14 13 12 9 5 4 3 2 2 2 2 2 2 3 3 3 3 4 6 6 9 12 14 16 16 15 15 15 11 9
19 20 18 20 22 24 24 22 19 17 16 15 13 11 8 6 4 3 2 2 2 2 2 2 3 4 4 4 4 4 4 5 6 8 11 12 11 10 9 10 7 8 9
20 22 24 26 28 27 25 22 19 17 15 13 10 7 6 5 3 2 2 2 2 2 3 4 6 6 5 5 4 4 4 4 4 6 5 6 6 6 6 6 7 7 7
23 24 26 30 30 27 23 21 19 15 14 11 8 7 6 4 3 2 2 2 2 3 4 5 6 6 6 5 4 5 4 4 4 4 5 5 5 5 6 6 6 6 7
29 29 31 32 32 28 23 20 18 15 12 10 8 6 5 4 2 2 2 3 3 3 4 4 5 6 5 4 4 5 5 4 4 4 4 4 5 6 6 6 7 7 7
32 33 36 36 33 27 23 20 17 14 11 8 7 6 4 3 3 2 3 3 3 3 3 4 6 5 4 4 4 4 4 4 3 4 4 6 7 6 6 7 7 8 8
48 48 45 42 36 26 22 19 16 12 8 6 6 5 4 3 3 3 3 4 5 4 4 6 7 7 5 4 4 4 5 5 4 4 5 6 6 6 7 8 8 9 8
48 54 49 42 34 26 22 17 14 10 8 6 6 5 4 5 5 5 4 8 6 5 8 10 10 9 8 6 5 5 6 6 4 4 5 7 6 7 8 8 9 10 8
64 53 46 38 27 22 19 15 12 10 8 8 8 5 5 6 6 5 5 6 9 17 17 19 22 21 16 13 11 7 6 6 5 6 6 6 6 9 9 10 11 11 10
72 47 42 34 24 19 17 15 14 13 10 10 8 6 6 8 8 8 8 7 7 7 11 10 9 22 32 31 25 20 12 7 9 8 9 8 7 11 11 12 14 14 17
72 55 30 26 24 20 17 14 13 12 10 9 8 8 14 12 10 14 14 15 13 8 9 14 14 13 15 22 26 27 26 21 15 14 15 12 8 12 16 14 16 18 21
75 69 51 40 30 22 16 14 12 11 10 10 12 13 25 17 14 19 20 15 9 7 7 10 10 8 7 8 10 21 28 32 34 26 22 23 15 8 18 22 15 19 23
31 42 55 50 36 22 19 15 13 12 12 12 13 21 25 19 16 19 14 13 10 9 11 12 13 13 13 12 11 10 15 27 43 47 41 34 35 32 15 18 32 30 27
28 25 25 42 39 31 30 24 17 16 13 12 13 18 15 22 21 13 20 22 19 18 19 18 16 17 15 11 9 10 11 18 29 39 43 54 54 61 57 43 31 42 50
30 26 23 22 26 32 37 30 27 16 14 12 12 28 15 17 20 15 27 21 19 22 23 25 22 24 27 27 28 19 14 14 17 24 36 46 65 84 95 92 87 61 52
31 32 29 26 24 23 23 24 24 32 34 32 30 26 31 24 17 20 20 23 22 20 21 17 19 29 38 36 37 37 38 53 64 81 73 64 65 68 84 99 99 100 98
40 35 35 33 30 27 28 39 39 30 38 44 38 31 24 24 28 16 16 37 41 41 21 21 18 18 24 34 31 32 46 63 79 76 84 85 87 86 83 85 90 99 97
44 40 38 34 31 27 25 28 24 22 22 22 21 20 21 26 30 38 35 40 30 22 19 26 22 19 11 15 45 60 56 49 49 64 74 74 86 87 94 100 98 90 83
46 44 40 35 32 30 31 31 30 27 23 20 19 26 40 24 18 12 16 19 16 17 12 10 10 10 21 29 28 33 25 22 28 30 60 80 85 92 97 100 99 98 97
66 53 41 38 33 29 30 33 32 31 26 22 20 16 14 13 12 11 10 9 9 10 9 8 8 17 16 19 22 24 34 36 37 43 43 47 65 89 95 94 98 99 99
63 52 58 64 51 47 44 44 47 44 28 22 21 18 15 14 12 11 10 10 9 7 7 7 8 11 12 21 16 20 19 29 18 32 33 29 33 45 57 58 76 94 97

GFSSE_500_rhum_081.txt.gz
RH
42 36 29 30 27 22 20 17 16 15 18 19 16 13 13 4 3 3 5 7 8 10 11 12 12 12 12 12 12 12 12 12 12 11 10 8 9 10 8 6 7 8 9
30 27 23 24 23 18 13 10 10 14 16 9 6 6 3 5 6 9 11 12 13 13 14 13 13 13 13 11 10 9 8 8 8 10 10 10 11 11 10 9 10 10 13
20 20 16 20 20 10 5 4 4 5 5 6 6 8 11 14 15 15 15 14 14 13 13 12 8 5 4 3 3 3 4 5 5 6 8 11 11 11 12 11 12 16 17
14 13 11 15 10 6 9 9 10 13 15 15 16 16 16 16 15 15 14 13 11 8 4 2 2 2 2 2 2 2 3 3 4 5 7 8 9 11 13 15 18 18 15
12 9 9 10 8 11 15 18 19 20 20 19 18 16 16 15 14 13 11 7 4 3 2 2 2 2 2 2 3 3 3 3 4 4 5 8 10 11 14 16 16 16 16
12 8 10 11 14 15 18 21 22 21 19 17 16 15 15 14 11 8 4 3 2 2 2 2 2 2 3 4 4 4 4 4 3 3 5 6 8 10 10 10 8 9 7
13 11 12 14 16 20 24 23 22 20 18 17 16 14 12 9 6 4 3 2 2 2 2 2 2 3 4 5 5 4 4 3 3 4 4 4 4 5 6 6 5 6 6
14 15 15 16 18 24 26 26 23 20 18 16 14 12 8 6 5 4 2 2 2 2 2 2 3 4 5 5 5 4 3 3 4 3 3 4 4 4 4 5 5 5 5
17 19 19 19 21 26 29 27 24 20 18 16 14 10 8 6 5 4 2 2 2 2 2 3 4 4 5 6 4 4 3 3 3 3 3 4 4 4 4 5 5 5 6
18 20 21 22 24 27 30 27 23 20 18 16 13 10 8 5 4 3 2 2 2 2 3 3 3 3 4 4 4 3 3 3 3 3 3 3 3 4 5 5 5 6 7
20 21 23 25 27 29 31 28 24 20 16 14 11 9 7 6 4 3 2 2 2 3 4 3 3 4 5 5 5 4 4 4 4 4 4 3 4 4 6 5 6 7 7
30 26 27 29 32 34 33 28 24 20 16 13 9 7 6 5 4 3 4 4 4 4 5 4 6 9 10 10 8 7 5 5 5 5 4 4 4 5 6 6 7 8 8
38 41 34 34 36 39 40 31 24 21 18 12 8 7 6 5 4 5 6 4 4 5 5 9 11 11 10 12 16 15 13 10 8 6 5 5 6 6 6 6 8 9 10
41 54 54 58 52 47 42 33 25 21 18 12 9 7 8 6 5 6 6 6 6 6 6 7 9 8 8 10 16 21 23 23 21 15 10 9 8 8 8 7 10 10 11
68 64 64 59 56 48 40 30 24 20 16 13 11 9 9 8 6 7 8 9 9 11 13 12 9 9 11 12 12 11 12 15 21 26 25 21 16 14 13 9 13 14 13
83 80 80 68 57 46 37 27 20 18 16 14 13 10 8 8 9 16 13 12 14 16 13 8 6 6 8 9 7 7 9 9 11 20 32 35 33 26 22 19 10 17 19
93 92 83 76 55 43 33 26 21 18 15 12 11 10 10 12 14 22 17 13 14 13 11 11 11 14 15 16 15 14 11 10 11 13 18 31 45 48 40 32 31 16 15
92 85 80 75 65 41 29 26 22 18 15 12 11 11 12 12 18 18 14 18 13 11 20 19 19 19 18 16 17 18 17 17 14 12 13 18 29 45 49 51 43 42 39
90 80 77 76 72 64 53 38 29 21 17 14 14 13 12 12 12 14 20 21 18 21 23 20 21 23 23 21 21 25 29 29 33 37 40 36 32 28 27 31 51 64 73
56 52 57 69 73 72 66 51 34 25 24 20 20 16 12 11 20 19 18 20 14 33 23 22 26 23 18 17 17 30 33 30 36 37 48 74 78 75 80 82 66 56 64
47 39 34 31 47 59 58 51 41 42 44 48 24 17 18 17 21 32 34 20 21 24 17 23 36 37 22 22 18 17 15 17 28 46 64 62 61 74 85 99 100 98 91
52 43 35 32 29 27 29 36 40 41 46 37 26 32 51 54 42 31 42 55 33 24 39 46 33 24 19 22 14 11 11 25 49 48 48 32 33 46 68 89 93 95 99
65 51 44 39 33 34 38 36 36 42 44 35 42 32 43 71 67 58 50 33 40 34 21 21 19 17 13 9 8 14 26 20 21 26 23 28 32 32 34 42 60 82 82
80 62 53 42 39 38 34 30 29 33 33 38 41 41 42 46 50 50 51 47 18 15 18 11 12 11 9 8 11 24 26 20 22 18 23 31 32 31 36 36 39 41 61
92 83 57 50 46 40 37 34 30 27 26 25 30 30 29 23 20 18 16 15 13 12 12 11 11 8 8 9 10 34 9 11 16 12 6 8 7 8 10 21 15 19 32
86 88 90 57 49 45 41 38 36 34 32 32 33 34 37 36 25 21 18 16 14 12 10 10 9 8 9 9 9 8 8 6 5 5 5 5 6 8 7 9 12 12 13

GFSSE_500_rhum_084.txt.gz
RH
45 46 38 34 30 23 20 17 16 15 13 15 13 11 13 5 3 3 5 9 11 12 13 14 13 13 13 12 11 10 10 8 7 7 8 10 10 10 11 10 10 10 11
39 45 40 30 29 26 21 17 14 13 16 16 8 7 4 4 7 11 14 14 14 14 14 13 13 10 6 4 3 3 3 3 4 5 5 7 8 9 10 11 11 12 14
30 32 34 24 24 23 17 10 7 7 8 5 4 5 10 14 15 15 15 15 14 13 12 8 4 2 2 2 2 2 2 3 3 4 4 5 6 7 8 9 12 14 16
24 24 25 20 17 21 12 6 6 6 7 10 14 16 16 16 15 15 14 13 12 8 4 2 2 2 2 2 2 2 3 3 3 3 4 4 5 6 6 9 10 12 12
22 24 17 15 12 15 7 10 13 15 16 18 18 17 16 15 14 14 12 10 5 3 2 1 2 2 2 2 3 4 4 4 3 3 3 3 3 4 5 6 5 6 5
21 20 12 11 10 9 11 16 19 21 20 19 17 16 15 14 12 10 6 4 2 2 2 2 2 2 2 3 4 4 4 3 3 3 3 3 3 3 3 3 4 4 4
15 14 10 11 11 11 14 19 23 22 20 18 17 16 14 12 8 5 4 3 2 2 2 2 2 2 2 3 3 4 4 3 3 3 3 2 2 2 3 3 3 4 4
12 12 9 11 13 15 18 22 23 23 20 18 17 16 14 10 7 5 4 3 2 2 2 2 2 2 2 3 3 4 3 3 3 3 3 3 2 2 3 3 4 4 4
12 12 12 14 17 18 23 26 26 24 21 19 17 16 13 10 6 5 4 3 2 2 2 2 2 2 3 3 4 4 3 3 3 3 3 3 3 3 3 4 4 5 4
12 14 14 18 20 22 26 30 28 25 22 20 18 16 12 8 6 5 4 3 2 2 2 3 3 3 4 4 5 5 5 5 4 4 4 4 4 3 3 4 5 5 5
13 15 17 21 23 25 28 31 30 25 22 19 17 15 12 8 6 5 4 3 3 4 4 4 4 4 8 10 9 9 9 8 7 7 6 5 5 4 4 5 6 6 6
16 18 21 22 24 26 31 31 31 27 23 19 16 14 10 7 6 5 4 4 5 5 4 4 4 6 8 9 8 8 10 12 14 16 16 13 11 9 7 6 6 6 6
19 22 24 27 28 32 35 34 34 29 24 21 18 13 8 7 6 6 5 5 6 5 6 6 7 8 10 8 7 8 9 11 13 16 18 20 21 19 16 13 10 8 8
21 25 28 30 32 36 37 37 39 34 26 22 20 14 9 7 8 7 6 6 7 7 8 9 12 13 10 6 7 9 8 6 6 7 7 10 16 23 26 27 23 18 12
28 29 40 39 44 43 43 43 44 38 30 24 19 13 11 9 9 8 8 9 11 10 12 14 13 9 6 6 7 9 11 12 12 11 10 9 10 12 18 28 38 36 26
84 42 40 48 51 53 57 55 47 39 31 24 19 16 14 12 9 8 9 12 16 14 12 12 11 12 13 15 16 15 14 16 15 14 13 13 12 10 11 15 27 37 44
97 95 58 62 59 58 56 54 49 41 29 21 18 15 13 11 10 11 11 13 17 16 14 12 13 20 19 18 19 19 20 20 21 26 28 30 32 30 29 28 22 18 20
94 99 92 80 76 73 68 59 52 44 33 22 20 16 13 11 11 11 11 14 15 12 17 16 18 24 19 23 27 21 16 17 18 27 32 30 32 36 35 53 60 63 67
96 97 98 97 93 83 74 66 56 42 30 25 21 16 14 13 13 12 12 13 15 13 15 15 26 24 21 19 19 21 17 17 18 18 17 20 24 31 48 55 52 57 69
95 97 97 98 98 88 78 70 63 48 36 30 25 20 18 17 16 14 12 13 15 18 24 18 20 19 22 34 37 29 19 22 21 18 13 19 37 40 54 46 34 33 41
94 95 97 97 98 97 92 79 73 74 70 45 33 50 54 37 24 19 16 18 24 29 25 30 24 23 39 43 30 24 16 11 10 13 20 25 20 23 21 22 29 34 34
96 95 94 96 94 98 99 94 85 80 69 55 54 63 66 77 67 37 55 61 57 47 63 43 32 38 30 22 18 14 11 9 9 15 24 25 37 30 23 26 27 23 26
96 96 95 89 76 65 64 69 78 80 75 68 57 47 56 70 74 70 70 90 84 60 41 51 70 34 16 14 10 10 9 7 8 20 19 21 16 17 12 8 7 8 9
94 95 96 74 49 43 40 36 37 40 40 40 38 50 59 55 53 59 54 49 41 46 49 48 30 23 12 11 11 9 8 8 9 8 7 6 5 7 6 6 8 8 8
93 92 95 95 91 62 44 37 36 39 44 45 45 51 45 41 49 60 49 42 43 47 32 18 15 14 12 12 10 8 9 10 9 6 3 3 4 6 6 7 6 8 10
84 97 96 89 82 80 67 45 36 34 33 32 31 30 28 27 38 38 30 30 35 29 23 19 16 14 12 11 9 10 11 9 9 4 3 3 4 6 8 10 10 11 12

GFSSE_500_rhum_087.txt.gz
RH
62 48 45 38 34 28 24 17 17 14 14 13 12 9 10 6 3 3 6 10 13 14 14 13 13 12 10 5 2 2 2 2 3 3 4 4 4 5 7 7 8 9 10
51 47 48 40 34 29 23 20 17 15 14 16 13 9 7 4 6 10 13 14 14 13 13 12 8 4 2 2 2 2 2 3 3 3 3 3 3 4 5 6 6 8 10
40 41 45 43 31 28 25 20 14 10 10 11 5 4 7 10 14 15 15 14 13 12 10 5 2 1 1 2 2 2 2 3 3 3 3 3 2 3 3 4 4 4 5
40 36 34 36 29 22 23 17 7 5 5 6 8 11 13 15 15 14 14 12 10 8 3 2 1 1 2 2 2 3 3 4 3 3 2 2 2 2 3 3 3 3 3
34 31 26 25 24 16 19 14 7 10 11 14 15 16 16 15 14 13 11 8 5 3 2 1 2 2 2 2 3 3 3 3 3 3 2 2 2 2 2 2 2 2 2
32 30 24 23 17 14 13 11 10 16 18 19 18 17 16 15 13 10 7 4 3 2 2 1 2 2 2 2 3 2 3 3 3 3 3 2 2 2 2 2 2 2 3
27 26 25 21 13 11 10 10 13 18 20 20 18 16 15 14 12 8 4 4 3 2 2 2 2 2 2 2 2 2 3 3 3 3 2 2 3 2 2 2 2 3 3
21 22 22 17 12 11 10 13 17 21 22 20 18 17 16 14 11 7 4 4 3 2 2 2 2 2 2 2 3 3 4 4 4 3 3 3 4 3 3 3 2 3 4
14 18 18 17 13 14 14 14 19 23 23 21 19 18 17 14 10 6 4 4 3 2 2 2 2 3 3 3 4 6 6 6 6 6 5 5 5 5 4 4 4 3 4
11 15 15 15 18 18 21 22 23 24 24 22 20 19 18 14 10 6 5 4 3 3 3 4 4 4 3 4 6 7 6 7 7 8 10 11 11 11 10 9 8 6 5
11 12 14 14 19 24 26 29 28 28 25 22 20 19 18 16 11 7 5 4 4 4 5 4 4 4 6 7 8 8 7 7 8 9 10 10 11 11 12 13 14 15 12
21 13 14 16 20 25 28 33 34 32 27 23 21 20 18 15 10 7 6 5 5 5 5 6 6 7 8 11 9 6 4 5 6 6 6 6 6 8 8 10 16 18 19
24 15 15 16 20 24 27 33 36 35 30 25 22 20 18 14 9 7 6 6 6 6 6 7 8 11 12 10 6 4 4 6 7 9 10 10 9 8 8 8 10 10 15
30 20 18 18 23 25 28 33 35 36 35 28 23 21 18 14 10 8 8 7 7 7 9 10 11 11 10 8 8 9 11 13 13 13 13 12 12 14 16 15 15 14 13
43 26 18 22 22 27 30 34 34 35 40 35 28 23 20 15 11 9 9 8 8 10 13 13 12 10 10 11 14 16 16 16 16 17 16 16 18 23 26 28 28 27 26
73 62 22 24 26 28 34 38 36 35 36 39 35 27 21 17 15 13 11 9 9 12 14 15 12 13 11 17 18 18 18 20 18 15 15 14 17 23 20 18 20 22 28
91 95 58 31 34 33 36 42 44 52 52 45 38 28 21 18 16 13 11 10 10 12 13 12 12 15 16 16 23 19 22 20 17 16 15 15 15 14 12 12 19 31 40
88 97 94 78 50 50 51 53 56 53 52 48 42 34 25 20 17 14 12 11 11 11 12 12 13 16 14 21 19 18 17 25 29 20 18 19 15 12 12 17 19 24 31
89 96 94 96 95 51 51 60 58 55 55 52 46 37 29 24 20 17 14 13 13 12 12 14 13 19 17 19 17 17 34 42 31 21 15 10 9 10 19 19 19 21 18
71 95 96 96 95 94 87 71 67 67 66 59 47 36 29 26 22 17 16 17 17 14 13 14 23 26 25 29 24 36 37 28 20 15 12 9 9 15 24 24 28 22 16
73 75 97 96 93 90 94 84 82 82 70 61 50 43 34 29 25 25 28 31 25 20 26 34 32 28 50 37 33 41 21 15 11 10 9 8 11 17 18 20 11 8 6
99 74 88 96 96 100 96 96 94 93 86 76 66 66 64 41 43 74 77 79 80 69 66 73 74 63 53 40 53 33 20 13 10 10 9 10 14 19 7 6 5 5 4
97 96 94 95 95 97 97 95 96 96 96 95 90 79 74 71 81 83 84 81 80 80 78 96 79 42 45 46 41 29 14 12 10 9 10 13 12 9 6 4 5 5 6
94 98 97 97 94 93 91 93 97 92 95 95 94 87 79 69 65 61 53 57 64 69 66 65 64 49 44 40 20 15 14 11 10 9 9 11 10 6 5 4 5 7 11
92 94 95 97 96 95 95 96 97 93 93 87 87 83 77 61 42 38 52 58 59 61 69 61 46 37 30 24 20 16 13 11 10 12 9 9 8 5 4 6 6 10 10
87 98 97 93 96 96 96 96 95 95 71 47 41 41 44 45 46 47 46 42 35 41 39 31 34 40 38 31 20 15 12 10 10 12 10 9 6 5 4 5 7 9 8

GFSSE_500_rhum_090.txt.gz
RH
64 52 46 39 35 30 28 17 15 14 13 13 12 10 8 8 3 3 6 11 13 13 13 12 10 7 3 2 1 2 2 2 3 3 3 3 2 2 2 2 3 3 4
74 64 50 44 37 33 27 23 18 16 14 14 14 11 10 5 5 9 13 14 14 13 11 8 3 2 1 2 2 2 2 3 3 3 3 2 2 2 2 2 2 2 3
64 57 51 50 40 33 28 23 19 16 13 13 13 5 4 8 13 14 14 13 12 10 6 3 2 1 2 2 2 2 3 3 3 3 2 2 2 2 2 2 2 2 2
62 49 45 45 44 31 27 24 18 12 8 7 6 8 12 15 15 13 12 11 8 5 3 2 1 1 2 2 2 2 3 3 3 3 2 2 2 2 2 2 2 2 2
54 48 38 37 34 32 20 22 16 7 6 8 11 15 17 16 14 13 11 8 4 3 2 1 1 2 2 2 2 2 2 3 3 3 2 2 2 2 2 2 2 2 2
48 52 39 31 26 25 18 17 15 9 11 14 17 18 16 15 14 12 8 5 3 2 2 1 2 2 2 2 2 2 2 3 3 3 3 3 3 3 3 3 3 2 2
41 46 40 29 22 19 16 12 12 11 17 19 19 18 16 15 13 10 6 4 3 2 2 2 2 2 2 2 2 2 3 4 4 4 4 4 5 4 4 4 4 4 4
37 38 39 29 22 18 13 11 13 15 19 21 19 18 17 15 14 10 6 4 4 3 2 2 2 3 3 3 3 4 6 6 6 6 6 6 7 7 7 8 8 8 8
33 30 30 32 22 17 13 13 16 19 21 21 20 19 18 16 13 10 6 5 4 3 3 3 4 4 3 4 6 6 7 7 7 6 5 5 5 6 7 8 9 10 11
29 24 21 29 22 16 14 15 19 24 24 22 22 20 18 17 14 10 6 5 4 3 4 5 4 5 6 7 8 9 8 6 4 4 4 4 5 6 7 8 8 8 8
18 16 16 24 20 18 17 18 22 26 27 25 22 20 19 18 16 11 7 5 4 4 5 5 6 7 8 9 10 8 5 4 4 6 7 8 9 9 9 9 9 11 12
18 13 13 19 18 20 22 24 26 29 30 27 24 21 20 19 17 13 8 6 6 5 6 7 8 9 11 11 9 7 7 8 10 12 12 12 12 11 11 14 16 17 18
37 25 14 15 17 18 23 28 29 32 34 30 25 22 21 19 17 13 10 7 7 7 7 8 10 11 11 10 9 10 12 14 14 14 15 15 14 12 14 18 21 20 18
56 53 33 15 18 19 23 27 28 32 35 35 29 25 22 19 16 12 10 8 8 8 8 10 12 13 12 11 10 12 14 16 16 16 17 14 13 13 12 14 14 11 11
46 57 52 20 15 20 22 25 26 29 32 38 33 28 24 21 19 15 12 10 10 8 9 12 14 14 12 12 12 15 17 19 18 18 14 15 17 16 15 15 12 11 13
54 64 60 43 16 17 22 26 26 26 31 41 40 37 31 25 22 18 15 14 12 10 10 11 13 13 11 13 14 14 22 19 19 16 19 24 20 20 17 11 9 11 13
54 62 66 53 38 17 19 25 27 26 29 38 40 45 39 31 24 20 18 16 13 11 11 11 12 11 11 13 14 18 20 19 16 27 33 30 24 16 10 8 8 15 18
60 60 62 74 66 34 19 22 27 29 31 35 49 51 43 35 27 23 21 18 15 13 12 12 12 13 12 12 17 18 21 19 29 37 34 23 17 12 9 8 9 16 19
80 56 69 77 91 89 26 34 32 33 41 44 52 51 47 41 36 30 25 20 17 15 14 14 14 13 13 16 26 25 33 32 38 35 19 14 10 9 9 8 10 13 14
93 52 60 82 89 89 93 59 65 39 50 59 65 61 52 47 41 34 28 23 20 18 18 19 17 16 21 28 27 40 41 41 57 28 19 14 10 9 9 9 13 9 5
96 67 74 68 94 92 98 98 93 91 67 70 71 63 59 54 46 36 30 28 25 23 35 32 27 27 53 61 69 68 43 62 49 27 17 12 10 10 9 9 10 6 4
95 96 73 71 63 95 97 96 97 96 93 80 68 70 65 59 49 41 37 34 34 71 77 78 77 69 69 80 73 45 51 49 32 17 15 12 10 9 10 10 9 4 3
97 95 94 80 69 63 84 94 93 97 96 97 96 96 77 77 77 74 83 57 66 83 85 77 71 71 77 71 64 49 46 32 20 22 15 12 10 11 12 10 8 4 4
95 97 92 99 90 68 72 96 97 96 96 97 96 95 95 95 96 96 93 81 81 75 64 52 65 66 63 66 55 43 35 33 39 28 14 11 11 16 12 11 6 5 4
91 98 93 89 91 98 94 97 97 98 96 96 96 96 96 96 96 96 93 91 79 72 40 54 54 50 53 52 31 35 43 43 31 19 16 10 16 20 11 12 6 5 5
90 90 95 95 92 92 85 88 95 97 95 96 96 95 95 96 96 91 80 63 44 42 45 44 37 31 36 34 37 43 50 47 26 16 13 16 41 18 11 9 6 6 7

GFSSE_500_rhum_093.txt.gz
RH
53 54 48 43 40 35 30 20 13 13 9 11 11 11 10 8 4 3 5 11 13 13 12 11 6 2 1 1 2 2 2 2 3 3 3 2 2 2 2 2 2 2 2
55 62 52 44 40 36 30 27 16 15 12 12 12 12 10 9 4 8 12 14 13 12 10 6 2 1 1 2 2 2 2 3 3 3 3 2 2 2 2 2 2 2 2
52 70 61 50 44 37 32 27 23 18 15 12 13 12 7 5 10 14 14 12 11 9 5 2 1 1 1 2 2 2 2 2 3 3 2 2 2 2 2 2 2 2 2
56 68 63 53 48 40 33 28 24 19 14 12 11 8 5 10 14 14 13 11 8 4 2 2 1 1 2 2 2 2 2 2 3 3 2 2 2 3 3 3 3 3 2
54 56 54 46 45 44 33 26 24 16 10 7 7 8 12 14 15 14 12 9 5 3 2 1 1 2 2 2 2 2 2 2 3 3 3 4 4 4 4 4 4 4 4
50 53 53 38 39 37 35 21 20 15 8 7 10 14 16 16 15 13 11 6 4 3 2 2 2 2 2 2 2 2 3 3 4 5 5 5 5 5 5 6 6 7 7
51 48 53 43 33 28 26 23 15 15 12 15 17 18 17 16 15 13 10 6 4 3 2 2 2 2 3 3 3 4 6 6 6 6 6 5 4 4 5 6 7 8 8
53 44 48 48 35 24 20 19 13 14 15 20 19 18 17 16 15 14 10 6 4 3 2 2 3 4 4 3 6 6 7 8 7 6 4 3 4 5 6 7 8 8 8
60 44 44 42 33 23 19 15 12 13 17 21 20 19 18 17 16 14 9 6 4 4 3 4 4 4 5 7 8 9 9 7 4 4 5 7 8 9 9 9 10 11 12
64 51 36 39 32 24 18 15 12 14 18 22 22 20 19 18 17 14 10 6 5 4 4 5 5 6 8 9 10 9 8 7 7 10 12 12 12 12 11 10 13 15 16
51 46 38 33 29 24 20 15 13 14 18 22 23 22 20 19 18 16 12 8 6 5 5 6 7 8 10 12 11 10 10 11 13 13 16 16 15 13 10 12 14 14 16
44 37 31 33 27 23 20 16 14 15 20 25 24 23 21 19 19 17 12 8 7 6 6 7 8 10 12 12 11 11 12 14 14 18 19 18 14 12 14 15 16 14 13
51 38 28 26 23 25 20 17 15 16 23 27 28 25 22 21 20 18 16 12 8 7 8 8 9 11 12 13 12 12 13 14 16 20 20 19 15 15 20 21 21 15 11
37 56 41 22 20 22 20 18 19 22 24 31 31 28 25 22 21 19 17 15 11 9 9 9 10 12 13 13 12 13 14 15 18 20 19 17 22 24 25 24 18 11 9
38 42 72 35 25 16 23 18 19 24 24 30 35 32 28 25 22 20 18 16 13 11 11 9 10 12 13 13 12 13 14 16 19 19 18 23 32 32 27 22 13 10 10
39 56 51 48 52 40 16 18 18 22 24 27 36 36 34 29 25 22 20 17 15 14 12 11 11 12 13 13 12 12 13 17 18 20 21 34 35 31 18 15 10 10 10
60 66 64 73 60 58 55 23 17 20 23 24 30 40 42 41 35 29 24 20 18 16 14 12 12 12 12 12 13 13 15 20 22 26 31 37 37 24 16 12 9 10 9
81 67 48 60 63 68 64 50 27 23 22 24 28 38 41 46 45 37 29 23 20 17 16 15 14 12 12 13 14 14 21 26 25 36 36 42 36 32 19 12 10 10 9
92 76 66 48 59 70 80 73 57 33 27 24 26 35 38 47 52 43 34 27 23 20 18 17 15 15 15 15 14 22 32 31 52 43 44 41 35 32 20 12 10 10 9
86 84 81 69 62 72 71 90 84 69 60 35 26 32 38 56 65 53 43 37 30 24 21 18 18 21 24 24 26 47 58 70 68 40 46 40 28 39 28 14 10 10 11
92 82 86 86 81 75 80 81 90 98 92 84 47 32 36 47 60 55 50 45 37 28 23 22 28 52 66 70 71 70 75 80 60 48 47 30 35 49 21 12 11 19 13
89 100 94 92 93 80 61 76 89 90 92 94 93 72 35 42 50 51 54 52 44 32 30 28 61 84 85 79 72 70 75 70 65 49 34 34 45 38 16 12 25 29 14
79 92 100 96 93 92 56 56 90 98 97 96 93 94 93 73 58 49 61 62 57 60 62 49 82 88 81 60 61 71 67 67 57 35 37 43 35 21 15 11 28 33 16
99 93 98 94 96 92 91 59 52 71 92 91 94 96 96 94 90 88 91 93 89 84 94 93 93 84 92 54 63 62 51 49 33 35 42 51 35 19 14 14 34 27 16
96 90 79 90 93 90 94 95 77 66 52 83 95 96 94 90 96 97 96 97 96 95 96 96 95 80 42 52 59 36 36 34 37 45 54 63 52 18 13 16 35 31 12
79 84 83 82 87 97 96 84 87 92 76 69 70 83 96 96 99 97 96 96 97 96 95 91 86 51 47 66 70 33 35 39 49 57 76 70 50 36 15 23 27 15 12

GFSSE_500_rhum_096.txt.gz
RH
49 45 40 39 42 45 40 32 13 13 9 8 9 10 10 8 6 3 5 10 12 12 11 9 4 2 1 1 2 2 2 2 2 2 2 2 2 2 3 3 3 3 3
49 48 50 46 42 40 39 32 26 13 13 10 10 10 10 9 5 5 8 11 12 11 10 5 2 1 1 2 2 2 2 2 2 2 2 2 2 3 3 3 3 3 3
57 56 59 50 44 40 36 32 28 20 14 14 11 12 10 8 6 10 11 12 11 9 6 2 1 1 1 2 2 2 2 2 2 2 2 2 4 4 4 4 4 4 5
56 50 63 55 48 42 37 34 28 24 18 15 12 12 6 6 10 13 13 11 9 6 3 2 1 1 1 2 2 2 2 2 2 3 3 4 5 5 4 4 5 6 7
58 52 64 68 57 45 39 34 29 24 18 13 9 10 6 10 14 14 12 10 7 4 2 2 1 1 2 2 2 2 3 3 5 5 6 6 6 4 4 5 6 8 9
61 53 54 63 52 46 44 36 28 24 17 8 6 7 10 15 15 14 12 9 5 3 2 2 2 2 2 3 3 3 6 6 7 7 6 4 3 4 5 7 8 10 11
61 52 53 56 45 39 41 38 27 22 16 10 9 14 16 16 16 14 12 9 6 4 3 2 2 3 4 3 5 7 8 8 7 5 4 5 7 8 9 9 10 12 14
69 60 50 50 50 36 33 32 30 19 16 12 14 17 18 17 16 15 13 9 5 4 3 3 3 4 4 6 8 10 9 8 6 8 11 13 13 13 12 11 10 14 16
73 67 56 44 46 45 32 22 22 21 14 13 14 16 18 18 17 16 13 8 5 4 3 4 4 5 7 9 11 11 10 11 12 13 16 19 17 15 13 11 14 17 17
82 72 64 44 37 42 37 22 16 15 13 14 16 18 19 19 18 16 14 10 6 5 4 5 6 7 9 12 12 12 12 15 15 15 21 22 19 15 14 19 22 26 23
82 71 65 56 39 35 33 23 17 13 11 12 16 20 20 20 18 18 16 12 8 6 5 6 7 8 11 12 13 13 14 16 16 18 22 24 25 23 19 24 26 26 18
66 62 52 54 50 34 29 24 20 14 12 12 16 21 22 21 19 19 17 13 9 7 6 7 8 9 12 13 14 13 14 16 17 18 22 22 24 29 29 28 26 23 16
56 52 44 36 43 40 29 22 19 16 13 14 16 22 24 22 21 20 19 17 12 10 8 8 9 10 11 13 14 14 14 16 18 20 21 23 26 32 33 32 25 20 14
57 62 44 36 32 36 30 24 18 14 12 14 20 24 26 25 22 21 20 20 17 14 11 11 11 11 12 13 14 13 14 15 18 21 20 23 29 34 34 30 19 15 11
53 49 38 30 31 38 31 30 19 15 13 14 20 26 30 28 26 23 22 21 19 17 14 13 13 12 12 13 13 13 13 14 16 22 22 26 30 36 35 35 29 17 11
47 51 47 44 71 36 35 28 24 31 16 15 22 26 33 34 31 27 24 22 21 18 15 15 14 12 12 13 13 13 14 14 18 28 25 30 34 37 36 36 34 16 11
54 62 80 43 45 56 46 54 59 37 23 16 21 23 32 34 36 33 29 26 24 21 19 17 15 13 12 12 13 13 15 15 22 33 30 41 36 37 36 33 47 28 13
94 52 41 98 84 60 44 57 77 82 51 38 24 24 26 32 34 41 40 37 32 25 21 18 16 14 14 14 14 14 16 20 36 44 55 58 37 39 36 35 49 31 16
80 83 82 41 61 56 59 64 72 83 84 59 33 26 24 26 32 38 45 46 40 31 24 21 19 17 16 16 18 21 24 41 59 65 68 58 49 44 37 41 52 26 13
63 90 79 88 76 65 72 66 55 67 91 82 45 33 30 27 28 34 38 52 46 42 35 30 24 20 19 20 30 44 65 70 72 75 70 65 54 41 37 53 49 21 14
31 44 88 82 81 94 64 46 54 71 94 93 87 74 63 49 32 32 33 44 54 52 46 42 32 26 24 37 74 84 80 76 68 72 68 64 50 36 42 58 57 23 17
20 33 42 90 83 74 83 88 60 64 66 80 92 96 96 90 48 30 28 37 47 56 50 50 41 33 28 39 81 86 67 62 72 79 64 55 34 36 46 57 62 32 20
19 16 12 42 81 94 73 83 98 82 72 78 86 90 90 95 95 95 89 69 62 67 66 62 55 43 42 56 88 85 84 62 71 71 45 37 37 47 47 55 69 46 17
22 20 35 18 50 89 88 78 94 94 97 94 90 88 96 94 96 97 96 97 96 95 96 93 86 88 94 98 92 93 75 77 62 54 40 36 44 51 55 62 65 47 19
18 22 37 39 40 65 90 91 94 95 98 97 85 72 94 95 94 95 95 95 98 95 97 95 96 96 96 96 95 95 62 48 85 60 37 46 48 56 55 71 62 17 27
16 14 15 31 68 99 69 84 88 96 97 96 96 96 93 79 69 84 95 95 97 95 95 97 96 96 97 97 83 53 57 92 81 66 77 51 48 61 64 34 18 19 34

GFSSE_500_rhum_099.txt.gz
RH
52 47 47 48 48 46 44 37 20 12 10 8 9 9 10 7 5 3 4 8 10 10 10 8 4 1 1 2 2 2 2 2 2 2 2 2 3 4 4 4 4 5 6
52 49 43 40 38 36 43 42 34 17 13 9 10 10 10 8 7 4 8 11 11 10 9 6 2 1 1 2 2 2 2 2 2 2 2 3 5 6 5 4 5 6 7
58 50 45 43 41 40 38 40 34 30 15 14 12 11 11 9 6 8 12 12 11 9 7 3 1 1 1 2 2 2 2 2 3 3 4 6 6 5 4 5 6 8 11
58 55 47 47 48 45 41 38 34 29 24 15 14 12 11 6 6 11 12 12 10 7 4 2 1 1 1 2 2 2 2 3 5 6 6 6 4 4 5 7 8 11 15
66 58 49 46 54 48 42 37 34 29 25 18 14 12 10 7 10 13 12 11 8 5 3 2 2 1 2 2 2 3 6 6 7 7 5 4 6 8 9 10 10 13 17
68 61 51 46 61 58 46 40 35 31 26 20 12 9 9 11 14 14 13 11 7 4 3 2 2 2 3 3 4 7 8 8 6 5 7 11 14 13 13 12 11 14 17
70 62 56 50 66 60 49 44 38 31 26 20 10 8 9 14 15 15 13 11 7 4 3 2 2 3 4 5 7 10 10 9 9 13 15 19 18 17 16 14 14 17 23
72 65 59 52 53 53 42 41 41 31 23 20 11 8 12 14 16 15 14 12 8 4 3 3 4 4 6 8 11 11 11 13 14 14 21 23 22 18 17 21 26 27 27
73 66 62 52 48 51 42 33 32 32 20 17 13 12 14 17 16 16 15 11 7 5 4 4 5 6 8 12 13 13 13 17 16 17 24 26 27 27 24 25 27 26 25
79 73 70 64 55 44 47 41 28 21 22 15 14 15 17 18 18 17 16 13 8 5 4 5 6 8 10 13 14 13 14 18 18 18 24 25 27 30 29 30 29 27 24
94 83 79 72 62 44 38 42 37 19 16 15 13 16 17 19 19 18 17 15 10 6 5 6 6 8 10 13 13 14 15 17 20 19 23 25 26 31 30 31 32 29 23
91 86 79 73 66 54 37 35 34 23 16 12 12 16 19 20 20 19 19 17 12 8 6 6 7 8 11 13 14 15 15 16 19 21 22 23 27 31 33 32 35 35 28
90 82 72 67 66 63 48 33 31 26 20 14 12 14 22 24 22 21 19 19 16 12 9 8 8 9 10 12 14 15 15 15 17 19 24 22 26 31 34 34 35 38 37
70 69 55 43 48 46 52 40 31 25 20 16 13 13 20 25 25 23 21 20 20 18 15 12 11 11 12 12 13 14 15 14 15 16 26 26 28 35 35 36 35 36 43
59 57 56 44 37 29 35 39 32 26 20 17 14 13 15 22 27 26 23 22 21 21 20 17 15 16 14 13 13 14 14 14 15 16 26 32 29 40 36 36 38 36 44
37 52 54 56 40 30 28 38 36 26 23 17 16 15 18 22 28 30 28 25 23 22 21 19 17 16 15 13 13 13 13 14 16 16 32 41 45 53 39 40 40 36 47
33 38 57 70 61 38 54 61 41 42 30 24 28 19 22 25 25 33 35 31 28 25 24 22 19 18 15 13 13 14 14 14 17 22 46 54 57 53 50 46 41 39 50
90 66 42 52 68 56 97 61 56 60 60 65 40 23 20 27 28 29 35 38 37 37 33 27 22 20 17 16 16 16 16 18 24 36 56 60 59 57 57 48 40 40 51
93 94 89 54 47 51 46 57 43 60 62 77 77 58 40 26 25 27 29 33 39 44 41 38 32 26 22 20 20 19 20 28 39 62 61 59 63 59 54 49 39 38 49
72 71 95 84 92 88 90 97 95 53 56 76 74 77 72 40 30 27 27 27 30 40 43 43 43 40 34 30 26 24 26 57 72 69 57 58 65 59 48 42 35 44 48
35 44 71 76 70 54 70 65 54 50 62 67 67 72 80 77 71 50 35 29 26 28 34 44 54 56 48 41 34 27 39 68 79 71 61 63 67 64 40 40 37 40 52
23 31 43 77 82 71 60 63 63 72 74 52 48 61 70 81 94 95 72 82 78 34 28 35 51 64 65 58 45 34 35 59 78 76 70 63 75 60 49 41 42 43 56
24 21 29 56 75 95 69 66 81 85 94 98 89 50 61 66 88 97 96 96 96 90 60 74 76 59 62 77 72 59 46 61 81 84 70 84 70 73 49 52 46 56 62
20 19 21 27 55 79 87 83 81 72 58 72 96 97 94 85 88 92 96 96 96 97 96 96 96 97 96 96 97 96 94 94 93 91 82 54 79 60 63 50 53 62 56
19 20 20 20 20 19 34 46 54 50 72 61 60 74 94 95 95 95 95 93 93 95 96 95 97 97 98 97 96 98 97 97 96 85 69 83 76 74 61 51 58 53 32
21 23 24 24 24 24 37 62 52 24 32 69 77 84 82 80 76 84 84 93 91 94 90 94 96 95 96 93 96 97 97 95 95 93 84 78 73 65 58 55 64 38 35

GFSSE_500_rhum_102.txt.gz
RH
50 45 45 48 48 43 42 38 20 12 10 8 8 9 10 8 5 3 4 6 9 10 10 8 4 1 1 2 2 2 2 2 2 2 2 4 6 7 5 5 6 8 11
49 49 49 48 49 47 44 44 37 19 13 10 9 10 10 9 7 4 5 8 10 10 9 6 2 1 1 2 2 2 2 2 2 3 4 6 7 5 4 6 8 11 16
55 49 46 46 45 42 36 43 41 35 19 13 11 10 11 9 8 6 8 10 10 9 7 3 1 1 1 2 2 2 2 3 5 6 7 7 5 4 7 10 11 14 18
60 54 50 45 40 37 36 38 40 36 30 17 14 12 12 9 7 9 11 11 10 8 4 2 1 1 2 2 2 2 4 6 7 8 6 5 8 11 13 13 13 15 18
62 54 50 45 41 42 44 42 38 35 30 26 16 13 12 7 8 12 13 12 10 7 4 2 2 2 2 3 3 5 7 8 7 6 9 14 16 17 18 17 17 18 21
65 58 54 48 41 45 46 43 38 34 28 24 20 13 11 9 9 13 14 12 9 5 4 2 2 2 3 3 6 8 10 9 10 14 16 21 21 21 21 23 25 25 25
66 62 58 51 44 53 52 46 42 35 30 23 19 10 9 10 12 14 14 13 9 6 4 2 2 3 4 6 9 11 11 13 14 15 22 24 23 22 23 24 26 25 24
76 68 63 57 50 63 63 51 45 39 28 22 16 9 8 11 14 15 15 13 10 6 4 3 3 4 6 9 12 12 15 18 17 18 25 26 26 26 26 27 28 27 26
82 71 66 60 56 55 61 47 41 40 29 20 16 12 12 14 16 16 16 14 10 6 4 4 4 5 8 12 14 14 16 19 18 19 25 26 27 29 29 29 30 31 30
93 76 68 63 55 52 55 49 36 29 28 19 16 16 16 18 18 17 17 15 11 8 5 4 5 6 10 13 14 14 15 18 21 21 23 26 28 29 32 30 31 32 32
89 79 72 66 61 56 47 47 47 35 21 20 16 16 18 20 19 19 18 17 14 10 6 5 6 7 10 13 13 14 14 16 20 22 23 24 27 30 33 33 34 34 33
89 93 79 74 71 65 56 42 41 42 28 17 14 15 18 20 20 20 19 18 17 13 8 6 6 7 9 12 13 15 15 16 17 19 24 26 24 28 34 34 36 36 34
97 94 86 81 80 75 66 51 37 38 33 20 15 14 17 20 21 21 21 20 18 16 12 9 7 8 9 10 12 14 15 15 16 17 17 27 27 28 37 38 36 38 40
94 97 89 84 84 78 70 63 48 35 32 26 19 14 15 18 23 24 22 21 20 19 16 13 11 10 11 11 12 13 14 14 15 15 16 24 34 31 43 43 39 42 41
92 86 92 82 72 65 63 56 53 44 33 26 21 17 15 17 22 26 26 24 22 21 20 19 17 14 14 15 15 14 14 13 14 15 16 24 41 44 48 46 48 44 43
65 66 73 71 62 47 43 40 38 41 35 28 23 19 16 17 22 27 30 27 26 24 23 22 21 20 18 18 16 14 14 15 16 17 21 27 48 50 51 52 51 47 45
52 49 60 72 67 52 46 36 35 40 36 29 26 21 20 20 23 28 33 36 34 31 28 26 25 24 22 21 19 18 17 18 18 20 25 34 50 55 53 54 54 49 44
89 49 42 34 55 56 54 40 30 48 48 52 38 32 32 29 24 28 30 33 39 41 40 37 36 33 29 24 21 19 20 22 22 24 29 44 57 52 55 57 54 47 42
85 94 70 71 77 83 72 84 49 97 66 74 65 61 60 46 35 26 25 26 28 31 37 43 47 48 45 38 31 27 27 27 26 27 36 59 66 55 54 60 57 42 40
86 83 87 69 66 64 48 40 49 93 44 46 62 60 67 70 64 53 35 23 21 24 27 29 35 39 44 51 50 43 37 34 31 30 50 64 69 61 58 60 68 47 48
87 84 83 79 98 96 95 96 73 94 92 98 66 58 68 63 63 63 60 43 28 26 26 23 22 25 34 48 62 64 58 47 34 31 46 73 70 69 66 71 71 63 55
73 82 88 82 72 73 90 97 93 85 79 81 75 68 76 75 70 61 65 68 78 76 80 94 96 85 33 31 35 41 60 64 56 44 41 61 73 73 69 77 71 62 56
47 54 71 62 56 62 73 86 98 92 89 80 72 67 72 74 76 67 56 64 89 97 96 96 97 96 92 93 93 90 80 63 74 77 68 59 70 74 82 72 79 64 52
48 56 60 58 45 35 63 62 99 92 94 96 89 91 95 85 95 98 87 89 96 96 96 97 97 96 97 97 97 97 97 97 95 97 93 95 87 85 94 86 74 60 51
44 45 61 42 46 35 34 50 66 46 51 74 63 79 67 63 70 90 97 96 96 94 93 95 96 96 96 97 96 97 94 96 96 95 97 98 87 96 92 82 68 57 52
41 42 39 43 49 26 22 45 46 36 38 53 72 84 95 95 96 95 92 96 91 96 99 83 90 95 95 92 94 92 94 96 96 97 97 96 94 78 73 79 67 59 57

GFSSE_500_rhum_105.txt.gz
RH
41 35 36 45 43 37 37 34 24 12 11 11 9 9 10 8 6 3 4 6 9 10 10 8 5 1 1 2 2 2 2 2 2 2 3 6 8 6 5 7 11 13 16
49 45 40 46 46 42 40 40 37 16 12 9 9 10 10 10 7 4 5 8 10 10 9 7 3 1 2 2 2 2 2 2 3 4 7 8 6 6 9 13 13 16 18
52 44 41 40 44 45 42 40 36 38 19 14 10 11 11 10 9 6 7 10 10 10 7 4 2 1 2 2 2 2 2 4 6 7 8 7 8 13 16 16 17 19 19
56 54 49 44 46 45 44 36 36 42 36 21 14 12 11 10 9 7 9 10 11 9 6 3 2 1 2 2 2 3 5 7 8 8 8 12 16 19 19 20 22 22 22
56 54 55 50 46 43 40 33 30 38 37 31 20 15 12 11 7 8 11 12 11 9 5 3 2 2 2 3 3 6 8 9 9 11 15 18 21 20 21 23 22 22 22
78 62 57 54 49 42 39 39 38 38 36 29 24 16 14 11 8 9 12 13 11 8 4 3 2 2 3 4 6 9 10 11 14 15 18 22 21 22 23 23 23 23 24
93 70 59 56 51 47 42 44 42 39 35 28 23 17 12 10 10 11 13 13 12 8 5 3 2 3 4 6 9 11 13 16 16 17 21 22 23 24 24 25 26 27 28
76 72 66 60 54 46 48 51 46 41 34 30 22 15 9 10 11 13 14 14 13 10 5 3 3 4 5 8 12 12 16 18 18 18 24 25 25 26 27 28 28 29 30
79 72 72 64 58 49 55 60 51 44 37 27 23 14 10 11 15 16 16 16 14 9 5 4 4 4 6 11 14 14 16 19 20 20 23 26 28 28 29 32 32 32 32
88 84 77 72 63 53 56 64 49 41 40 27 20 17 14 14 17 18 17 16 15 10 6 4 4 5 7 12 14 14 15 17 20 22 22 23 26 30 31 34 34 34 33
96 89 81 73 62 55 51 59 50 38 28 27 19 17 17 17 18 18 18 18 16 13 9 5 5 6 8 11 13 14 15 15 17 20 23 26 26 26 30 36 37 36 35
95 80 88 78 66 59 52 50 51 46 37 23 19 17 17 18 19 19 19 20 18 17 12 8 6 6 7 9 12 13 15 16 16 17 17 21 28 31 30 36 41 38 39
97 94 96 92 71 65 62 58 46 42 44 34 20 15 16 18 20 20 20 21 20 19 17 13 9 7 8 9 10 12 14 15 15 15 16 18 23 30 35 37 42 42 42
97 94 95 92 80 77 75 70 60 42 38 38 28 18 15 16 19 22 23 22 21 20 19 16 13 10 9 9 10 11 13 13 14 14 16 19 22 29 39 43 44 44 44
96 89 94 98 88 86 87 80 71 63 44 35 32 25 19 16 17 19 23 25 24 22 21 19 18 16 14 13 13 14 14 14 14 16 18 20 24 30 42 47 48 48 48
93 96 95 97 98 91 91 82 72 62 56 46 32 26 22 19 17 20 24 28 29 27 25 23 22 22 22 20 19 20 19 18 16 17 18 20 24 31 43 51 53 52 52
79 95 91 97 93 90 80 69 57 47 43 42 37 29 24 21 19 17 19 24 29 32 33 31 29 28 26 26 26 25 22 19 18 20 23 24 25 32 46 55 54 57 57
79 95 70 72 82 71 59 51 48 42 38 39 36 31 27 25 23 20 20 22 25 28 32 35 36 36 36 37 37 35 31 26 24 24 26 27 27 33 53 60 55 55 59
97 82 90 72 51 96 92 40 35 37 36 39 42 40 37 38 35 34 27 23 23 25 25 25 28 32 36 39 41 45 47 44 39 36 33 28 28 40 63 67 62 62 68
96 97 91 84 39 41 44 29 34 32 31 36 67 54 56 58 66 63 58 50 40 28 22 20 23 26 26 26 29 37 44 48 52 52 54 46 32 43 59 72 70 70 75
96 96 94 96 66 77 76 74 62 61 56 62 98 51 62 78 64 70 70 71 66 68 66 55 44 45 44 60 82 48 33 40 41 49 54 54 58 46 46 58 72 78 77
97 94 96 95 94 96 96 95 88 97 81 62 65 97 85 92 70 62 63 66 70 79 83 80 86 92 96 93 97 96 80 47 48 57 55 58 66 65 74 61 66 77 81
96 95 94 96 90 96 92 96 96 96 96 89 91 96 89 83 76 66 63 70 76 78 71 52 65 90 96 96 91 94 100 93 95 98 98 87 81 95 95 95 84 81 94
93 95 97 97 96 94 95 93 94 97 96 96 94 94 93 96 94 90 87 89 88 93 95 93 95 95 95 96 96 97 97 98 93 94 88 97 98 95 100 96 94 96 95
77 81 100 92 93 75 92 75 95 80 79 92 97 95 84 63 63 77 75 94 96 97 95 96 96 96 98 97 94 96 94 94 96 96 96 98 96 95 100 97 93 96 94
81 72 76 77 92 95 86 65 82 57 90 90 85 57 54 80 96 96 96 96 97 97 95 92 94 95 96 97 95 95 96 96 95 93 95 96 96 97 97 97 96 93 89

GFSSE_500_rhum_108.txt.gz
RH
38 32 27 25 22 30 35 32 23 16 16 19 16 9 8 8 7 4 4 6 8 9 9 8 6 2 1 2 2 2 2 2 2 3 5 8 7 6 11 14 16 18 18
41 38 35 30 30 34 35 36 32 21 11 9 8 8 9 9 8 5 4 8 9 9 8 6 4 1 1 2 2 2 2 3 4 6 8 8 8 14 16 17 19 20 18
45 37 37 36 36 38 36 39 38 34 20 12 10 9 9 9 9 7 6 9 9 10 8 5 2 1 1 2 2 2 3 5 7 8 8 10 14 18 18 19 20 18 18
48 48 37 38 43 46 44 40 38 32 36 28 17 12 11 10 10 8 8 9 10 9 8 4 2 1 2 2 2 4 6 7 8 9 13 15 17 19 19 21 20 20 20
53 54 49 40 46 50 48 45 38 33 36 39 29 18 14 11 10 8 8 9 10 10 7 4 2 2 2 3 4 6 8 9 11 15 15 18 19 21 21 21 21 22 24
66 64 58 52 46 48 47 44 37 28 30 39 36 26 16 13 10 7 8 9 11 10 7 5 3 2 2 4 6 9 10 13 15 16 17 20 21 21 22 23 23 24 26
71 68 66 59 54 50 45 42 37 34 33 37 34 27 19 13 11 9 10 11 12 11 8 6 3 2 4 5 8 11 13 16 17 18 20 22 22 23 24 26 27 28 28
75 75 72 68 61 53 48 42 41 41 39 37 31 25 18 12 10 11 12 14 14 13 9 4 3 3 4 7 11 12 15 18 19 18 20 24 25 27 27 28 30 29 30
89 86 91 72 65 57 50 43 40 43 40 35 31 24 18 10 11 12 14 15 15 14 8 5 4 4 5 8 12 14 16 17 19 20 21 23 25 27 29 29 31 32 32
88 77 94 74 68 62 53 45 48 46 42 35 29 25 16 12 12 14 16 16 16 15 9 6 4 5 5 9 13 14 15 16 18 19 22 24 25 26 27 29 32 34 35
76 78 79 73 69 64 56 51 55 52 43 41 28 21 18 15 16 17 18 18 18 17 13 9 5 5 6 8 12 14 14 15 15 17 18 19 23 26 29 30 32 36 36
71 76 80 75 68 68 61 53 63 53 43 36 34 23 18 18 18 18 18 19 19 19 17 13 8 6 6 7 9 12 14 15 16 16 16 17 19 24 27 29 35 37 38
100 93 93 82 73 70 62 54 57 56 43 35 28 25 20 17 19 19 18 19 20 20 19 17 13 9 7 7 8 10 11 13 14 14 15 16 20 22 26 29 35 40 41
87 100 94 95 80 71 62 54 51 48 47 44 36 25 18 16 18 20 20 21 21 21 20 19 17 15 12 10 9 10 11 12 14 14 15 16 18 22 26 29 35 40 43
96 97 86 96 90 76 69 67 64 56 45 40 39 37 26 18 15 15 19 21 24 24 23 22 21 19 18 17 16 15 15 16 16 16 16 17 20 22 24 29 34 43 47
92 95 96 95 90 92 87 80 76 70 64 51 36 34 33 28 21 16 15 17 20 24 26 25 24 23 23 23 22 21 20 21 21 21 19 20 22 22 24 27 35 39 51
89 96 97 94 94 94 96 90 83 77 70 61 54 42 30 27 24 20 17 15 16 19 22 26 28 28 28 28 28 28 29 29 30 29 26 25 25 27 25 27 37 48 57
81 89 96 94 91 84 88 91 82 71 60 51 45 43 41 31 25 21 18 17 16 16 18 22 25 27 29 29 30 32 32 33 34 37 38 37 37 36 35 32 41 63 67
78 72 85 98 95 96 94 81 79 62 49 40 35 33 31 33 29 26 23 21 20 19 17 19 22 22 21 21 22 23 24 25 29 34 42 44 49 55 50 50 41 47 60
76 62 60 96 94 95 91 71 70 51 40 37 32 32 31 38 39 36 34 34 39 39 40 44 45 36 28 24 26 30 43 68 76 52 36 39 48 53 55 51 58 57 53
97 93 80 72 71 68 77 80 98 96 36 30 34 36 70 80 58 61 59 60 56 54 57 60 59 63 69 76 85 83 89 90 91 98 80 42 46 54 61 62 66 67 96
96 96 96 96 84 88 82 74 94 78 42 47 52 59 64 92 56 60 86 74 59 56 58 59 66 69 67 52 64 90 96 92 92 85 84 74 76 92 94 92 83 92 90
96 94 95 94 96 92 94 96 75 67 54 69 66 60 70 96 98 88 82 83 74 68 67 76 78 80 71 74 85 95 96 95 93 96 99 97 99 91 96 98 96 94 93
96 97 93 92 91 90 95 95 96 96 96 95 96 97 95 96 96 94 84 77 79 72 80 87 95 96 97 94 97 97 96 97 97 95 97 95 96 98 97 100 100 98 94
92 94 96 95 86 98 96 96 96 96 95 96 96 97 95 97 93 60 63 76 77 83 91 97 96 98 95 97 96 96 96 96 97 97 96 96 94 88 95 97 93 98 98
60 58 94 93 96 94 94 95 96 95 90 96 95 93 64 74 73 92 95 96 97 96 96 80 67 78 83 85 73 84 94 93 93 95 91 98 97 95 94 95 94 95 96

GFSSE_500_rhum_111.txt.gz
RH
53 48 36 25 23 26 32 32 20 23 28 28 24 10 8 8 6 4 4 4 6 7 7 7 5 2 1 2 2 2 2 2 3 4 8 8 9 14 16 17 17 18 17
51 44 38 26 28 30 34 34 27 15 13 13 12 9 7 8 7 5 5 6 7 7 7 6 4 2 1 2 2 2 2 5 6 8 8 10 14 16 18 16 16 16 16
52 45 35 29 27 34 37 36 34 27 13 10 8 7 8 8 9 8 7 7 7 8 8 6 4 2 1 2 2 2 4 7 8 8 12 14 14 17 17 18 17 16 18
58 52 42 32 30 31 40 37 37 36 30 18 12 10 9 9 9 8 8 8 8 8 8 6 4 2 2 2 2 4 7 8 9 13 15 15 16 17 17 17 18 19 20
68 55 44 40 34 32 43 42 41 39 32 34 29 20 14 11 10 9 8 8 9 9 8 6 5 2 2 3 4 7 8 10 14 15 15 17 17 18 18 18 19 20 21
67 66 50 47 42 38 41 46 46 41 34 33 37 34 23 15 12 10 8 8 9 10 9 7 5 2 2 3 6 8 11 14 15 16 17 17 17 19 20 20 20 20 22
70 65 62 53 51 47 46 45 47 42 31 33 38 38 31 21 15 11 9 9 10 11 10 8 5 3 3 4 7 11 13 16 17 17 17 18 20 21 22 22 21 21 24
81 69 69 61 54 50 48 47 45 41 32 29 35 37 33 24 16 12 10 10 11 12 12 8 5 3 4 5 10 12 14 16 16 18 18 19 21 22 23 22 22 21 24
84 72 73 67 60 55 54 49 44 38 37 36 37 34 27 21 13 11 12 12 12 13 13 8 5 4 4 6 10 13 15 16 17 18 19 21 23 23 23 24 24 22 26
81 76 78 74 68 62 58 53 46 39 37 38 37 32 25 20 12 11 12 14 15 14 14 10 6 4 5 6 10 14 14 15 16 17 18 20 20 21 23 23 25 25 28
77 80 83 79 78 70 63 56 48 41 39 40 37 33 26 19 12 12 14 16 16 16 16 13 9 6 5 6 8 12 14 14 15 16 17 18 19 20 23 24 26 26 29
81 76 99 97 89 77 66 59 50 46 44 43 38 31 26 21 15 16 15 16 17 17 17 17 14 9 6 6 7 9 11 13 14 15 16 16 17 19 22 24 26 27 28
98 99 99 99 98 82 70 61 52 50 50 45 42 36 26 21 19 18 17 17 18 19 19 18 18 15 10 8 8 8 9 10 11 13 14 15 16 19 23 25 26 28 31
97 98 96 99 97 85 73 65 57 53 52 48 40 35 32 27 20 18 19 19 19 20 21 20 20 19 18 16 14 12 11 12 13 15 16 16 17 20 23 26 27 28 32
96 96 98 97 99 95 80 68 59 52 54 52 41 33 28 24 22 18 18 18 18 20 21 21 21 21 20 20 20 19 18 18 17 18 20 21 21 22 25 27 29 30 32
96 86 97 98 96 96 84 72 61 53 49 53 49 42 36 28 21 17 15 15 15 16 19 21 22 23 23 23 23 23 23 24 24 25 27 28 28 27 27 30 32 32 34
96 97 97 93 97 97 88 72 61 54 48 44 41 38 37 36 33 28 22 18 16 16 17 20 24 27 29 31 30 30 30 31 31 31 31 32 34 36 35 36 37 39 40
94 97 96 91 98 96 88 85 70 62 55 52 48 44 39 32 28 28 26 24 20 18 17 18 21 25 26 25 24 24 24 22 20 20 22 25 29 39 46 48 50 48 44
93 89 93 95 96 96 94 90 84 72 64 60 55 51 49 46 41 34 27 24 22 19 18 17 16 17 18 18 18 17 16 17 21 32 50 76 86 64 42 48 46 53 52
96 90 86 96 97 97 94 91 76 68 71 67 59 50 43 38 34 34 33 29 26 24 25 28 33 35 37 45 49 51 55 61 69 75 79 80 83 87 51 44 51 58 63
92 81 77 94 97 96 80 89 83 89 75 62 48 37 28 26 27 31 35 40 44 48 49 50 49 47 50 61 68 65 57 55 65 76 74 78 80 69 68 60 75 86 77
83 74 79 64 89 90 97 97 96 82 67 60 48 37 29 28 24 26 41 47 43 48 53 56 49 48 56 64 69 70 75 79 87 86 80 86 96 90 89 81 91 84 91
78 72 80 63 65 86 96 97 90 88 72 62 49 29 26 34 40 57 76 63 66 78 93 78 70 72 92 88 94 96 98 94 89 96 95 94 88 90 91 90 89 91 91
96 93 96 97 73 76 79 91 95 89 94 86 77 40 32 40 72 74 93 97 96 97 88 86 94 95 94 97 97 97 95 96 96 96 96 97 90 96 94 94 91 87 94
96 96 97 96 89 96 94 96 94 95 96 96 94 95 94 94 93 95 97 97 84 87 95 97 96 96 95 93 90 75 41 33 37 49 66 89 92 96 95 92 78 74 91
97 95 97 96 96 96 96 96 97 96 96 96 98 99 96 97 96 95 96 96 94 97 97 92 95 85 59 17 12 11 10 10 9 11 17 42 87 81 79 78 73 74 75

GFSSE_500_rhum_114.txt.gz
RH
46 52 46 38 30 21 20 35 26 27 29 28 26 16 11 6 5 5 5 6 6 7 6 6 4 2 1 2 2 2 2 3 4 7 8 10 12 14 14 14 14 14 16
46 52 50 43 31 23 23 34 24 21 25 27 24 12 8 8 6 5 5 6 7 7 7 6 5 2 1 2 2 2 3 6 7 8 10 13 14 15 15 14 15 15 17
61 61 54 46 34 26 25 36 25 19 14 13 13 10 7 7 8 7 7 8 8 8 8 7 5 3 2 2 2 3 5 7 8 11 14 14 14 15 15 16 15 15 16
59 69 61 45 33 26 24 35 31 27 16 11 9 8 7 7 8 8 8 8 8 8 8 7 6 4 2 2 2 5 7 8 12 14 14 14 14 14 16 15 15 15 17
65 66 62 51 36 27 28 34 37 36 31 20 13 11 10 8 9 9 8 8 8 8 8 8 6 5 2 2 4 6 9 12 14 15 14 14 15 16 17 15 14 15 18
76 68 65 53 42 32 32 36 39 41 38 36 31 24 19 17 12 10 8 8 8 8 8 8 7 5 2 3 5 8 11 14 15 15 15 15 15 16 17 17 16 15 16
82 74 62 56 47 40 35 40 43 41 40 35 35 36 31 28 22 15 10 8 8 9 9 9 7 5 3 4 6 10 13 16 16 16 17 16 17 19 20 18 17 17 18
86 76 64 56 51 48 42 41 47 45 43 37 35 39 36 33 25 17 12 10 10 10 10 10 7 5 3 4 8 11 14 16 17 17 17 18 19 20 20 20 20 18 18
85 74 65 61 55 53 50 46 48 46 44 38 30 33 36 34 25 15 12 11 11 12 11 10 7 5 4 5 8 12 14 16 16 17 18 18 19 19 20 21 22 21 20
77 84 69 61 58 57 53 50 50 48 43 39 32 33 34 31 24 16 13 12 12 13 12 11 8 6 5 5 7 11 14 15 15 16 16 17 18 19 20 22 23 22 22
63 77 69 61 59 63 57 54 50 47 44 39 37 37 35 28 24 16 12 12 13 14 14 13 12 8 6 5 6 9 12 14 14 15 16 17 17 18 19 22 24 23 25
84 83 76 69 65 67 62 59 56 50 46 42 39 38 34 28 24 16 12 13 13 15 16 16 15 13 10 7 6 7 8 10 12 13 13 14 15 15 18 22 24 25 26
96 98 89 73 67 70 68 64 60 54 49 43 41 38 34 29 25 17 15 14 14 16 17 17 17 17 15 12 10 9 9 9 9 10 12 14 15 16 18 21 25 26 27
95 95 96 97 87 80 76 71 67 60 51 48 45 42 34 27 25 21 18 17 16 17 18 19 18 18 18 17 16 15 14 13 13 13 14 17 19 20 21 22 25 27 29
96 96 95 98 100 96 90 82 73 64 57 51 47 43 39 32 24 21 19 18 19 18 18 19 19 19 20 20 19 19 19 19 20 20 21 22 23 25 26 26 27 28 31
95 96 96 96 98 92 95 92 78 66 59 54 48 43 34 33 30 28 24 21 20 18 18 19 20 20 20 21 21 22 22 23 24 25 26 27 28 29 30 30 32 34 35
92 96 98 95 92 98 100 91 80 68 61 58 52 47 38 32 27 24 21 20 18 17 17 18 18 19 21 22 23 24 26 27 28 29 29 26 21 18 17 18 25 33 42
96 97 96 93 91 92 96 94 83 72 63 58 54 52 48 41 37 32 28 25 21 19 18 18 20 19 19 20 22 20 19 18 16 14 13 12 16 23 49 66 70 60 40
92 94 96 89 85 79 82 96 84 76 63 56 51 47 45 41 38 36 33 30 28 25 22 19 17 16 15 16 15 15 15 15 17 27 36 42 56 69 69 67 73 64 46
94 96 95 95 73 77 71 87 85 74 64 56 51 48 45 42 39 36 33 30 28 25 23 22 20 19 21 25 27 28 34 43 51 52 51 52 55 59 58 63 71 60 53
97 95 93 96 87 73 69 82 89 77 67 63 64 64 62 57 52 48 44 39 36 32 30 27 24 25 44 47 41 43 52 61 60 60 58 58 65 78 67 71 83 74 67
95 97 96 96 96 96 85 86 92 91 91 94 79 73 68 58 50 41 35 30 27 24 24 32 34 42 52 44 44 55 57 68 68 77 77 71 81 74 82 87 86 87 77
96 96 96 95 93 98 100 93 94 89 92 93 88 81 61 48 39 33 32 26 26 35 49 41 46 58 61 69 83 92 90 84 94 89 85 96 96 88 82 82 90 87 86
95 96 97 99 94 88 96 96 96 97 83 92 94 79 66 52 45 40 28 28 57 77 70 68 88 91 88 90 96 95 84 92 75 37 18 56 42 18 38 72 89 91 90
96 96 97 95 90 98 96 95 97 91 87 96 97 92 85 66 61 51 58 60 93 95 96 96 97 97 97 94 88 74 26 29 24 12 9 8 7 8 8 20 47 78 77
96 96 96 97 97 91 82 75 97 98 94 94 99 95 93 86 90 94 94 94 96 97 97 97 96 73 88 76 72 39 20 16 13 9 8 7 7 6 6 7 9 14 42

GFSSE_500_rhum_117.txt.gz
RH
64 54 50 42 36 29 23 23 27 33 32 29 27 24 18 7 5 5 6 7 8 8 7 6 4 3 1 1 2 2 2 3 6 8 10 12 12 12 11 12 12 14 14
54 56 50 45 42 33 25 23 28 28 31 29 27 20 12 7 5 5 6 7 8 8 7 6 5 3 2 2 2 2 4 7 8 10 13 12 12 12 12 12 11 12 14
39 53 55 51 48 37 26 24 29 23 26 27 27 21 10 8 6 6 6 7 8 8 8 7 6 4 2 2 2 4 6 8 10 13 13 12 13 14 13 12 11 12 14
41 52 59 56 52 42 28 25 28 24 18 17 16 14 9 7 8 7 7 8 8 8 8 7 6 5 2 2 3 6 7 9 14 14 14 13 14 13 13 13 13 13 15
45 54 64 61 58 46 31 27 30 29 20 14 10 9 8 7 7 8 8 8 8 8 8 8 7 5 3 2 4 7 9 13 14 15 14 14 14 14 13 13 13 13 14
55 58 72 69 61 52 35 30 31 32 31 21 13 12 10 9 9 9 9 8 8 8 8 8 8 6 4 3 5 8 11 15 15 14 15 15 15 15 15 15 15 14 14
62 60 64 71 65 55 40 34 32 34 34 36 35 26 19 17 14 12 11 9 8 9 8 9 8 7 4 3 5 9 12 15 15 15 15 15 15 15 16 17 16 15 14
66 68 65 62 65 56 42 39 36 36 36 39 38 35 35 28 23 20 15 11 9 10 10 9 8 7 5 4 5 9 12 15 15 15 16 16 17 17 18 19 19 19 17
59 76 71 71 65 57 46 43 41 41 43 40 39 34 31 37 31 25 20 14 11 11 11 10 9 8 5 4 5 9 12 15 16 16 17 18 18 18 19 20 21 22 20
64 81 86 81 70 59 51 48 44 48 47 44 40 34 30 36 35 30 21 14 12 12 11 10 9 8 5 5 5 8 12 14 15 15 16 16 17 18 18 19 21 23 22
96 73 96 77 79 60 54 53 50 45 48 47 42 37 30 30 34 31 21 14 13 13 12 12 11 9 7 6 6 7 10 12 13 14 14 15 15 16 16 18 20 23 24
96 77 98 80 74 66 54 57 54 46 44 43 42 39 34 33 33 27 20 15 13 12 13 13 13 13 11 8 7 6 7 8 9 11 11 12 13 14 16 18 20 23 25
93 94 96 89 69 66 57 56 53 47 44 43 41 39 37 36 33 26 21 15 13 14 14 15 14 15 14 13 12 11 10 9 9 10 11 12 14 17 19 21 22 24 25
85 81 92 94 73 64 60 56 57 54 50 46 43 41 38 36 32 25 23 16 15 14 15 16 15 15 16 15 15 15 15 14 14 15 16 18 19 20 22 23 25 26 28
78 96 87 97 88 88 73 67 62 59 56 51 47 43 41 37 30 26 24 18 18 16 16 17 18 18 18 18 18 18 18 19 19 20 21 22 22 23 22 22 24 24 21
79 96 97 98 96 99 83 74 69 64 61 55 50 47 44 40 32 26 25 22 20 19 19 19 18 18 18 19 19 19 20 20 21 22 23 22 23 22 18 15 14 15 31
84 92 96 96 95 97 86 79 75 70 66 61 55 49 46 42 38 32 26 23 21 20 20 20 20 20 20 20 20 18 19 20 20 20 21 21 15 11 10 14 23 40 55
96 97 90 96 96 96 86 84 82 77 73 67 58 52 46 41 39 32 29 28 26 25 23 22 20 16 14 15 14 15 16 17 16 16 14 11 10 17 28 42 53 62 60
98 96 95 96 96 92 93 95 90 82 77 71 62 56 52 41 38 30 28 27 24 22 20 19 18 19 18 17 17 16 15 15 15 14 15 23 37 46 47 48 50 54 55
93 96 98 95 96 96 97 97 93 86 85 73 64 60 55 48 44 38 34 33 31 30 29 27 24 22 20 19 18 19 24 32 39 43 45 52 54 55 54 51 57 51 50
95 96 96 96 96 95 94 91 85 86 85 76 67 60 56 51 47 46 40 39 36 32 29 27 25 24 24 23 28 47 50 42 44 52 56 57 64 68 64 63 61 61 60
92 96 96 94 95 95 94 92 96 94 90 81 69 60 54 51 46 42 40 38 36 37 38 33 30 30 32 44 52 51 45 49 54 75 79 79 59 66 73 74 48 26 39
92 93 95 96 96 99 95 93 90 91 88 83 74 64 55 50 48 50 51 51 50 44 37 32 32 43 45 49 51 66 79 84 88 88 62 39 27 14 14 11 13 12 16
89 92 97 97 96 96 92 83 90 88 88 80 67 58 56 71 81 67 64 55 45 39 29 30 54 68 74 86 96 92 89 61 35 31 32 27 14 8 8 7 6 6 5
94 97 96 96 95 96 91 83 93 92 92 85 84 75 82 93 94 79 63 47 41 38 38 56 87 94 96 98 97 81 80 71 49 28 15 13 12 9 8 7 6 5 4
94 96 97 97 97 96 96 95 93 95 96 94 92 89 91 97 94 75 59 55 64 69 83 91 98 98 97 94 78 35 25 26 22 20 12 11 11 9 7 8 7 5 4

GFSSE_500_rhum_120.txt.gz
RH
71 72 69 61 44 34 28 24 26 30 31 31 31 29 26 14 5 6 7 8 8 8 7 6 4 3 1 2 2 2 2 4 8 9 12 12 11 11 10 10 10 11 12
39 69 65 62 51 38 34 28 23 29 30 31 30 29 22 12 5 5 6 7 8 8 8 7 5 3 2 2 2 3 6 7 9 12 12 12 11 11 11 10 10 10 12
31 49 68 58 57 43 38 31 23 30 29 28 30 28 20 11 6 5 6 7 8 8 8 7 6 4 2 2 2 4 7 8 13 13 13 12 12 12 11 10 10 10 10
59 43 48 60 54 48 40 35 24 30 26 25 27 27 20 9 7 6 6 7 8 8 8 8 7 5 2 2 3 6 8 12 14 13 13 13 12 11 11 11 12 11 10
48 54 46 51 53 50 43 38 27 30 23 22 24 22 18 9 7 8 7 7 8 8 8 8 7 6 3 2 4 7 9 13 13 14 14 13 12 13 13 13 13 12 12
85 55 54 45 54 52 47 42 31 28 26 20 18 12 10 8 8 8 8 8 8 8 8 8 8 6 4 3 5 8 12 14 14 15 15 14 14 15 15 15 15 15 15
19 63 57 52 54 56 52 45 38 27 33 24 22 15 11 10 9 9 9 9 9 8 8 8 8 7 6 4 4 8 12 14 15 15 15 15 16 16 17 18 18 18 17
11 63 70 55 54 63 56 46 44 30 34 31 29 25 19 16 16 15 13 11 10 9 9 8 8 8 6 4 5 8 12 15 16 16 17 17 17 17 18 18 19 19 18
4 52 84 62 61 70 61 50 46 36 33 35 35 30 32 32 30 28 25 19 16 12 10 10 9 8 7 6 5 7 11 14 15 16 16 16 17 17 17 17 18 19 20
3 18 56 80 68 68 70 56 49 40 34 34 36 36 33 29 29 32 33 27 22 15 12 11 9 9 8 6 5 6 9 12 14 14 15 15 15 15 15 16 17 18 20
10 15 71 82 71 64 65 64 54 45 37 34 33 40 39 33 29 32 34 32 24 16 13 12 10 10 9 7 6 6 7 9 11 12 13 12 13 12 13 16 18 19 21
42 30 60 65 77 69 62 66 57 47 42 40 35 39 42 36 30 30 31 32 25 17 14 12 10 11 10 9 8 7 7 7 8 9 9 10 11 12 15 18 20 21 23
45 42 51 98 98 75 61 68 60 48 44 42 43 40 41 39 33 30 31 30 23 16 14 12 12 12 12 12 12 11 11 10 10 11 11 12 14 17 19 20 21 22 24
44 47 43 97 80 84 89 79 67 56 48 47 44 44 40 40 37 35 32 28 22 17 15 13 13 12 12 13 13 14 14 14 15 15 16 18 19 20 20 19 21 22 19
30 62 47 89 80 95 97 88 83 60 56 54 47 44 44 40 38 36 33 28 23 17 16 14 14 15 15 16 16 16 16 17 17 17 19 20 20 19 19 19 17 15 12
8 93 60 69 84 95 95 93 90 70 64 60 52 46 45 44 40 36 34 29 24 19 17 16 15 17 18 18 18 18 18 19 18 18 17 19 17 15 15 13 11 17 37
29 98 68 76 94 96 96 92 89 78 75 63 55 50 49 48 43 38 35 30 26 23 20 20 20 20 19 19 20 20 20 16 16 18 18 13 12 12 10 12 31 46 48
25 94 98 62 96 93 98 92 86 86 77 66 59 59 53 50 45 43 39 33 28 24 21 20 20 20 21 21 20 17 16 17 18 16 12 12 11 12 19 38 48 47 45
26 94 98 86 96 94 92 95 87 88 78 67 66 62 56 52 47 44 37 35 32 28 26 25 24 23 20 16 17 19 20 17 16 16 17 18 29 41 43 48 50 55 59
22 92 99 83 94 96 96 93 94 95 78 71 70 67 61 55 49 45 41 39 33 27 25 24 20 20 20 23 21 20 19 19 21 26 34 39 44 47 51 56 60 63 57
29 96 97 98 93 84 94 94 90 86 80 76 74 69 64 56 47 43 41 34 30 24 23 24 28 28 28 24 23 23 24 27 38 45 49 50 54 63 57 48 32 22 27
35 96 100 95 96 94 95 96 96 93 83 82 77 71 65 60 53 49 37 32 31 29 33 36 32 30 29 28 28 30 36 44 48 52 70 69 47 25 10 8 8 7 6
46 88 97 97 96 97 96 96 94 92 84 82 78 76 71 72 59 52 46 37 37 40 39 35 34 37 37 32 34 38 47 60 60 74 57 41 31 29 27 18 10 8 7
72 89 99 96 96 96 97 97 96 91 80 82 88 84 85 78 64 55 47 44 46 40 40 43 46 44 34 40 48 71 84 85 77 58 34 20 12 10 10 7 5 4 6
63 87 96 96 96 96 97 95 95 97 96 95 95 95 94 72 60 47 61 90 44 62 56 50 46 38 49 66 67 90 96 94 73 37 25 21 12 8 7 7 6 6 5
82 82 96 97 97 96 97 97 98 97 95 93 94 92 87 80 66 74 84 57 56 91 62 54 45 49 74 93 96 99 93 28 27 23 22 17 10 8 8 7 6 6 6

GFSSE_500_rhum_123.txt.gz
RH
34 48 69 84 68 43 32 28 29 32 38 35 30 31 28 25 12 6 7 9 9 9 8 6 4 2 2 2 2 2 3 6 8 11 11 10 10 10 9 8 9 9 10
42 55 58 74 77 52 36 31 30 30 35 35 32 29 27 24 10 5 7 8 9 9 8 7 5 3 2 2 2 3 6 8 11 12 11 11 11 10 10 10 10 10 10
73 58 53 63 75 63 44 33 31 29 30 36 33 29 27 20 11 5 6 7 8 9 9 8 7 6 2 2 2 5 7 10 12 11 12 12 12 11 11 11 12 12 11
42 80 46 53 69 65 51 38 33 31 29 34 33 30 27 20 12 6 5 6 8 8 8 8 7 7 3 2 3 6 8 12 12 12 13 13 12 12 12 13 13 12 12
7 48 78 53 62 69 56 42 36 33 28 32 30 30 27 22 12 8 6 6 8 8 8 8 8 7 5 2 4 7 10 12 12 14 14 13 13 14 13 14 14 14 14
5 10 65 62 45 62 61 51 40 36 29 30 25 28 25 23 13 8 8 7 7 8 8 8 8 8 8 4 4 8 11 12 13 14 14 14 14 13 14 14 14 14 13
4 4 25 57 42 42 53 53 47 38 32 31 24 20 18 14 11 8 8 8 8 8 8 8 8 8 8 5 4 8 12 13 14 14 14 14 15 15 15 15 14 14 14
10 3 24 61 57 47 45 46 48 45 37 30 28 18 15 12 9 9 9 9 10 10 9 9 8 8 8 7 4 6 11 13 14 14 15 15 15 15 14 14 15 16 17
39 14 4 8 60 48 52 47 47 49 43 32 31 24 18 14 12 13 14 14 16 15 11 10 10 8 8 7 5 6 8 12 13 14 14 15 15 14 14 14 15 16 17
48 77 20 5 46 52 38 54 52 51 50 38 32 32 28 26 24 24 25 26 27 26 18 13 11 9 8 7 5 5 7 9 12 14 14 14 13 13 12 13 15 17 19
20 66 86 11 34 56 58 52 60 55 52 45 34 36 34 37 38 34 34 33 32 30 25 16 12 10 9 8 6 6 6 7 9 10 11 11 11 11 12 14 16 18 20
4 29 44 66 20 64 69 58 69 70 51 47 39 38 39 41 42 36 32 34 34 32 28 15 14 11 10 9 8 8 7 7 8 8 9 10 10 12 15 17 19 20 20
3 2 23 46 69 61 76 68 55 72 63 56 45 40 41 43 43 40 37 36 32 30 25 16 14 12 11 11 10 10 10 9 10 11 12 13 14 16 18 19 19 21 20
3 2 2 10 44 72 56 80 60 61 65 65 53 44 42 46 47 42 35 32 30 28 24 17 14 13 12 12 12 12 13 13 14 14 15 16 18 18 17 16 16 15 11
3 2 2 2 22 54 70 61 72 55 61 70 63 49 48 50 51 46 39 34 29 27 22 18 15 14 13 13 13 14 15 16 16 17 18 18 17 14 13 12 12 10 12
3 2 2 2 11 47 73 70 100 80 78 71 71 58 51 54 53 48 41 36 31 28 20 19 16 15 14 16 17 18 18 18 19 20 18 15 14 12 11 11 10 17 29
2 2 2 2 3 34 61 66 95 91 88 81 76 61 57 57 54 47 42 38 32 30 22 19 17 17 16 18 19 19 19 21 21 17 14 14 14 11 10 13 20 32 37
2 2 2 2 8 42 39 60 96 96 94 82 74 63 60 58 54 48 44 38 35 31 25 21 19 19 19 19 20 21 22 19 15 16 16 17 14 15 22 29 36 38 42
2 2 2 2 2 14 36 58 85 97 96 71 71 70 67 60 56 50 47 42 35 29 24 21 21 20 20 20 22 22 17 17 21 20 17 18 21 32 37 35 38 47 54
2 2 2 2 6 44 37 77 94 96 96 86 78 73 71 62 56 53 50 45 35 27 25 22 21 22 24 24 21 18 21 23 22 20 22 26 39 40 40 44 43 25 12
3 2 2 17 97 98 92 60 76 95 93 94 86 79 75 64 57 56 53 45 36 36 28 25 23 23 24 21 21 26 26 24 26 26 28 33 38 44 52 28 12 13 20
4 5 2 42 89 91 98 68 85 95 97 97 96 89 77 66 62 58 53 42 42 31 29 25 24 24 25 26 30 28 28 30 28 30 42 46 50 58 46 33 27 20 9
9 21 14 56 92 69 96 87 82 96 97 95 92 87 77 68 66 60 52 45 36 29 25 26 25 26 39 34 30 33 32 31 39 47 74 66 52 34 17 17 12 6 5
10 30 38 42 99 96 96 97 83 98 87 92 92 88 79 73 69 63 58 46 54 34 31 30 33 41 56 38 35 35 35 44 55 81 76 58 23 18 16 12 6 4 4
24 49 44 21 91 97 96 97 95 97 97 96 96 96 94 90 81 70 60 66 60 36 39 37 42 65 46 43 41 38 52 54 87 90 88 29 21 16 10 7 6 5 5
91 78 33 53 97 94 98 95 96 93 98 94 96 95 95 95 91 87 86 87 56 46 45 41 90 69 71 68 41 46 70 94 89 90 58 31 21 14 9 9 7 7 6

GFSSE_500_rhum_126.txt.gz
RH
36 41 42 58 61 60 41 28 24 27 36 39 37 32 33 28 23 6 6 7 8 9 8 6 4 2 2 2 2 2 4 7 10 11 10 10 10 9 9 9 9 8 8
63 42 31 47 58 67 47 33 26 25 32 36 37 32 31 27 24 6 6 7 9 9 9 7 7 3 2 2 2 3 7 8 10 10 10 10 10 9 9 9 9 9 9
41 84 40 38 48 65 58 39 30 25 27 33 36 34 31 28 20 10 5 6 8 9 9 8 8 5 2 2 3 5 8 10 10 10 11 11 10 10 10 10 10 10 10
10 68 59 40 45 62 66 50 38 30 26 28 34 36 32 29 18 15 6 6 7 8 8 8 8 7 4 2 3 6 8 11 11 11 11 11 10 11 11 11 10 10 9
2 7 46 59 39 51 67 64 46 39 31 26 31 35 34 30 24 13 9 6 7 8 8 8 8 8 6 3 4 6 9 11 11 12 12 11 12 12 12 11 11 11 10
2 3 13 54 62 40 63 67 57 42 38 31 27 35 32 31 25 15 10 7 7 8 8 8 8 8 7 5 4 6 9 11 12 12 13 12 12 13 12 12 12 12 13
3 5 4 6 31 56 44 67 60 49 41 38 28 32 28 29 25 17 10 7 8 8 8 8 8 8 8 7 4 6 10 12 12 12 12 13 13 13 13 12 12 14 14
11 9 4 2 6 60 55 48 59 52 44 42 36 29 27 25 20 16 9 8 8 8 9 9 9 8 8 8 5 5 9 12 12 13 13 13 13 14 13 12 12 14 16
12 19 34 20 3 16 51 48 41 55 48 44 44 30 31 19 13 10 9 9 9 10 10 11 10 9 8 8 7 5 7 11 12 12 12 13 13 13 12 11 12 15 17
35 40 36 42 18 6 40 67 42 41 50 44 42 42 31 26 14 13 12 13 13 16 20 20 14 10 9 8 7 6 6 8 10 11 11 12 12 11 11 11 13 16 18
16 46 48 37 61 13 27 65 54 44 40 47 42 46 35 32 21 16 17 20 23 26 26 26 22 13 10 9 8 6 6 7 8 9 10 10 10 10 11 14 16 17 17
12 11 47 41 63 72 25 7 31 56 38 34 50 51 50 35 33 28 33 36 34 32 30 24 24 14 12 10 9 8 6 6 7 8 8 9 10 12 14 16 16 14 14
14 11 6 35 19 77 86 31 27 58 48 35 36 58 56 46 37 37 40 40 38 35 30 24 21 15 13 11 10 9 8 8 9 9 11 12 14 16 17 16 13 11 10
15 13 8 5 9 34 60 88 59 34 57 50 38 48 62 56 45 41 45 44 40 37 32 26 17 15 14 13 11 11 11 11 12 13 14 16 17 18 16 11 9 10 9
18 12 8 6 5 25 41 44 67 80 46 57 50 45 67 68 56 46 48 48 41 35 31 26 18 16 14 14 13 13 12 13 14 16 17 18 19 17 12 12 12 10 11
22 15 9 6 6 4 34 46 47 54 87 58 52 53 64 80 67 57 52 50 45 36 31 25 17 17 15 15 15 14 15 17 18 18 19 21 16 12 15 15 14 16 23
23 21 14 7 6 5 4 43 36 41 53 74 67 53 65 83 80 66 60 55 49 41 32 22 17 18 16 16 16 16 18 19 19 21 22 16 14 17 18 16 17 27 28
24 22 20 11 7 6 4 11 96 45 58 76 73 60 51 73 85 69 64 58 51 42 33 22 20 19 18 17 17 18 19 20 21 22 16 18 20 19 18 20 31 30 30
26 23 21 16 8 6 4 4 18 44 86 70 97 81 57 64 83 75 65 60 50 40 32 24 21 20 19 19 19 20 20 21 22 17 21 24 20 22 26 31 35 38 36
26 24 23 18 12 7 5 4 8 11 34 43 79 91 82 69 80 79 66 61 52 41 32 27 24 22 21 21 20 20 22 23 19 22 24 22 25 28 31 33 42 39 35
23 22 22 18 14 9 5 3 4 4 4 74 70 84 97 88 77 80 68 62 54 44 33 29 25 24 22 22 22 22 23 21 24 25 24 28 27 33 40 45 48 46 33
6 9 13 13 10 9 5 3 3 4 11 51 89 97 94 97 89 85 70 62 54 47 39 37 33 30 26 23 24 24 23 27 28 27 31 28 35 47 54 52 46 33 14
2 3 3 4 4 4 3 2 2 3 18 56 48 84 96 96 97 94 72 63 53 46 43 38 34 29 26 24 24 24 41 35 30 34 32 33 48 58 60 42 24 14 9
3 2 3 3 3 3 2 2 2 3 4 15 39 56 90 96 96 94 80 64 51 46 44 36 30 27 26 26 28 27 81 44 33 39 37 48 67 65 43 23 14 7 5
23 18 9 8 4 3 2 2 3 5 45 53 81 91 96 96 97 96 90 70 61 52 41 32 27 24 34 54 32 35 91 58 37 39 47 76 71 73 28 18 13 7 5
51 42 24 20 5 3 2 5 40 56 39 79 90 93 95 97 96 95 94 82 83 65 68 38 32 82 81 38 31 60 91 85 61 57 83 93 81 62 19 16 10 7 7

GFSSE_500_rhum_129.txt.gz
RH
28 43 27 28 40 56 48 35 23 21 26 37 35 35 34 30 24 17 6 8 9 9 8 7 6 2 2 2 2 2 4 6 9 10 9 9 9 8 8 8 8 8 7
52 37 33 27 34 42 54 47 29 23 22 31 38 34 32 30 24 18 6 7 8 10 9 9 8 5 2 2 2 3 6 8 10 10 9 10 9 9 9 9 8 7 7
27 57 36 26 30 40 50 53 37 27 25 24 35 37 34 31 25 19 7 6 7 9 9 9 8 8 5 2 3 5 8 10 10 10 10 11 10 10 10 9 9 9 8
8 37 64 40 29 30 42 52 48 33 28 27 25 36 36 33 29 18 10 5 6 8 9 9 9 8 8 2 3 6 8 10 10 10 10 11 11 11 11 9 10 10 10
4 8 26 50 57 33 31 45 54 44 33 29 29 26 37 36 32 22 12 8 6 7 8 8 8 8 7 6 3 6 9 10 10 10 10 11 11 11 11 10 10 11 12
2 2 6 46 64 52 33 40 44 54 44 34 31 27 29 37 34 29 14 10 7 6 8 8 8 8 7 6 4 5 8 10 10 10 11 11 11 12 12 11 11 12 13
3 2 2 10 31 46 40 34 41 47 52 42 35 34 26 34 34 33 20 10 8 8 8 8 8 8 8 6 6 5 7 11 11 11 11 11 12 12 12 11 11 12 14
10 3 3 5 8 11 30 44 41 41 50 50 38 36 33 29 31 29 20 12 9 8 8 8 9 9 8 7 6 6 6 9 11 12 12 12 13 12 12 11 11 13 15
53 38 13 6 7 6 19 24 50 46 43 52 44 35 39 30 30 25 17 12 10 9 9 9 9 10 10 8 7 7 6 7 10 11 12 13 13 12 11 11 12 14 16
11 40 70 48 34 24 18 12 33 53 41 41 46 38 34 39 30 29 15 11 10 11 10 11 12 17 13 9 8 7 6 6 8 10 11 11 12 11 11 11 14 16 14
11 13 42 76 66 52 39 38 32 49 62 42 41 42 35 42 36 30 23 14 13 15 15 16 24 23 14 11 9 8 7 6 7 8 9 10 10 10 11 13 16 15 10
15 11 10 20 67 73 61 45 43 36 51 56 45 49 41 47 46 32 32 20 17 20 21 23 22 23 18 13 11 9 8 7 6 7 8 8 10 11 14 16 16 12 9
22 18 14 13 13 44 76 75 71 41 39 59 56 41 42 41 53 43 36 33 33 32 34 26 26 24 21 15 13 10 9 9 8 8 9 10 12 15 17 18 15 10 12
27 24 20 14 12 15 41 72 67 68 39 26 34 48 46 42 42 60 43 38 39 42 39 37 28 24 19 15 15 12 11 11 10 11 12 14 16 17 20 18 12 14 14
31 29 25 19 14 11 12 41 55 48 67 64 26 41 49 44 53 57 59 44 41 45 44 39 32 28 20 17 15 14 13 12 12 13 15 17 18 22 21 14 18 19 17
31 31 30 23 18 15 9 17 34 47 55 59 66 57 40 49 49 60 62 58 46 47 48 41 34 29 23 19 16 16 14 14 15 16 18 19 21 23 15 19 23 18 19
38 34 33 30 22 18 13 8 34 40 43 34 42 47 64 44 49 53 62 68 58 52 51 46 35 28 21 16 17 16 16 16 17 19 20 20 23 17 20 23 19 21 28
41 40 37 35 29 22 14 10 12 39 50 36 43 41 49 65 65 55 70 72 71 61 56 50 40 33 21 17 17 16 17 17 18 20 20 24 19 20 24 20 25 28 31
36 41 42 38 34 24 18 12 8 18 42 40 35 35 47 63 72 64 61 74 78 68 62 53 42 35 24 19 17 18 18 18 19 20 22 23 19 27 22 26 29 28 39
40 39 41 44 37 28 18 14 12 8 18 50 89 66 60 68 73 79 64 66 76 73 65 57 44 35 27 25 20 18 18 20 20 22 24 20 26 25 28 27 27 40 46
44 42 43 40 41 36 24 18 16 11 7 12 75 97 53 60 98 91 80 65 75 84 69 60 49 37 30 27 22 19 19 21 21 24 22 24 30 28 30 28 40 47 46
42 42 41 43 41 41 34 22 16 10 7 28 20 50 19 39 33 59 91 87 90 91 71 61 54 43 34 27 23 21 21 21 23 24 24 30 30 32 31 29 42 50 40
25 30 37 44 45 43 39 30 19 13 12 34 26 8 6 6 14 57 84 95 87 90 77 64 56 46 33 27 25 24 22 23 25 26 50 40 31 35 35 33 56 50 36
5 7 14 23 39 43 40 35 26 18 14 12 7 16 12 6 56 75 82 97 96 95 78 65 56 47 40 33 25 21 22 24 25 32 64 53 34 41 40 64 60 50 26
2 2 3 4 8 26 38 31 28 21 16 11 8 10 6 3 15 31 96 96 96 96 78 64 57 46 42 33 26 24 24 26 40 52 59 73 38 42 48 72 61 42 20
17 7 3 2 3 3 11 16 17 15 13 10 8 7 4 3 7 33 61 95 97 96 93 84 54 46 46 37 25 23 24 42 93 65 58 93 67 61 73 75 70 47 18

GFSSE_500_rhum_132.txt.gz
RH
37 26 21 21 25 31 43 34 26 19 22 34 39 39 36 32 26 21 9 8 8 10 9 8 9 5 2 2 2 3 5 6 8 8 9 9 9 8 8 8 7 7 7
41 42 26 24 23 27 36 43 32 23 20 26 35 38 35 33 27 19 12 6 8 10 9 9 10 10 4 2 2 3 5 8 9 9 9 9 9 9 9 8 8 8 8
18 40 44 29 34 22 27 43 46 31 21 21 25 34 36 34 31 22 11 6 6 9 9 9 10 10 7 2 2 3 7 8 9 8 9 9 9 10 9 8 9 10 10
4 16 42 42 32 27 26 33 48 44 28 21 22 24 34 34 33 27 14 6 5 7 8 9 9 10 8 6 3 5 7 9 9 9 9 9 10 10 10 9 10 11 12
4 5 14 34 42 30 27 27 31 44 39 28 22 23 23 33 35 32 20 10 5 6 8 8 8 9 8 7 4 6 7 9 10 10 10 10 10 11 11 10 10 11 13
3 5 8 14 33 45 31 28 27 30 38 40 29 25 24 24 35 36 31 14 9 6 7 8 8 8 8 7 6 5 7 8 10 11 11 11 11 12 12 11 10 11 13
3 2 4 9 18 28 43 38 33 26 30 38 39 33 27 24 26 36 35 26 10 9 7 8 8 9 8 8 7 6 6 8 10 11 11 11 12 13 12 11 11 12 14
13 17 4 8 14 18 34 52 50 40 27 28 38 36 36 30 24 31 33 30 15 10 9 8 8 9 10 8 7 6 6 6 8 10 11 11 12 12 11 11 11 13 15
14 51 42 24 25 19 27 30 38 36 35 32 26 36 38 37 33 25 30 27 19 11 10 9 9 9 13 11 8 8 6 6 7 9 11 12 12 12 11 11 11 14 16
7 9 35 80 67 45 49 26 21 17 44 50 40 34 31 39 37 30 27 27 16 12 11 10 10 11 17 22 11 8 8 6 6 8 9 11 11 11 10 11 13 16 16
10 8 9 17 53 88 73 56 49 37 37 36 51 48 40 37 42 36 28 29 20 15 14 11 11 17 25 23 17 10 8 8 6 7 7 8 9 9 10 12 16 18 14
18 15 12 10 11 32 78 94 76 71 69 48 54 63 45 41 41 39 36 30 31 18 18 16 17 19 24 26 21 13 10 8 8 7 7 8 9 10 12 16 18 18 13
22 20 19 15 12 12 14 68 90 91 70 68 56 54 66 53 46 53 40 38 34 29 25 25 24 25 24 25 24 15 12 10 9 8 8 9 11 14 16 18 21 16 18
32 26 22 21 18 15 13 28 53 75 85 80 77 65 61 60 49 48 51 41 38 39 36 40 38 36 32 28 25 16 14 12 11 11 11 12 14 17 19 22 20 17 23
41 34 31 26 24 21 17 14 22 49 65 79 66 62 42 44 56 52 44 47 44 40 41 42 44 39 35 34 26 19 15 15 13 13 13 14 17 20 22 24 16 24 20
39 47 39 34 29 26 21 18 17 30 58 66 64 61 51 37 25 35 46 43 49 49 42 43 46 45 39 35 30 21 16 15 15 14 14 16 20 21 25 20 20 25 21
40 45 46 44 35 30 27 22 20 21 41 50 56 50 58 66 54 40 49 46 44 52 52 44 47 50 44 36 29 22 17 16 16 16 16 18 20 22 27 18 26 23 26
46 42 45 47 45 36 31 26 22 19 27 51 53 53 45 42 48 57 46 48 52 48 54 50 49 52 50 39 32 24 18 18 17 17 17 19 20 24 24 22 27 26 29
44 46 44 43 44 48 37 31 28 22 21 20 50 56 58 47 58 51 62 61 53 51 60 57 54 55 55 48 38 25 20 20 18 18 19 20 21 26 23 28 27 30 27
42 40 41 41 40 44 48 40 36 31 25 17 26 54 64 50 57 57 54 70 66 75 68 69 63 63 60 55 44 31 23 19 18 18 20 21 23 25 24 32 31 32 31
42 39 37 38 40 39 41 46 42 37 29 18 18 29 53 50 78 58 53 51 78 78 81 89 74 63 64 58 46 33 25 20 19 20 21 22 25 24 26 37 32 32 31
39 37 35 33 36 38 39 44 48 42 34 18 14 12 41 94 58 76 59 70 78 84 81 72 84 79 65 60 50 35 28 22 19 20 23 25 25 26 37 44 34 37 40
38 41 39 36 32 36 38 44 47 50 42 31 23 14 10 54 45 53 88 86 90 95 83 91 79 90 75 64 56 43 30 24 22 22 23 24 26 28 47 54 35 41 44
27 31 38 41 37 38 39 34 47 50 49 40 24 14 11 16 30 54 79 70 73 64 67 87 85 85 80 66 58 50 34 25 24 22 24 25 26 28 46 63 43 52 54
9 13 18 20 30 36 39 41 40 51 54 48 32 19 10 17 13 16 55 24 22 58 71 81 97 92 88 71 61 50 38 28 22 23 26 31 28 37 52 69 78 53 78
11 7 5 5 8 10 26 34 37 44 54 55 43 28 20 12 12 48 36 13 10 65 78 92 97 95 92 84 65 52 39 27 21 32 37 28 32 57 78 65 84 87 67